Time,TemperatureF,DewpointF,PressureIn,WindDirection,WindDirectionDegrees,WindSpeedMPH,WindSpeedGustMPH,Humidity,HourlyPrecipIn,Conditions,Clouds,dailyrainin,SoftwareType,DateUTC
2013-06-04 00:00:00,66.8,64.1,29.90,SSE,153,0.0,0.0,91,0.00,,---,0.13,VWS V14.01,2013-06-04 04:00:00,
2013-06-04 00:02:00,66.8,64.1,29.90,SSE,153,0.0,0.0,91,0.00,,---,0.00,VWS V14.01,2013-06-04 04:02:00,
2013-06-04 00:04:00,66.8,64.1,29.90,SSE,153,0.0,0.0,91,0.00,,---,0.00,VWS V14.01,2013-06-04 04:04:00,
2013-06-04 00:06:00,66.8,64.1,29.90,SSE,153,0.0,0.0,91,0.00,,---,0.00,VWS V14.01,2013-06-04 04:06:00,
2013-06-04 00:08:00,66.6,63.6,29.90,SSE,153,0.0,0.0,90,0.00,,---,0.00,VWS V14.01,2013-06-04 04:08:00,
2013-06-04 00:10:00,66.6,63.6,29.90,SSE,153,0.0,0.0,90,0.00,,---,0.00,VWS V14.01,2013-06-04 04:10:00,
2013-06-04 00:12:00,66.4,63.4,29.90,SSE,153,0.0,0.0,90,0.00,,---,0.00,VWS V14.01,2013-06-04 04:12:00,
2013-06-04 00:14:00,66.4,63.4,29.90,SSE,153,0.0,0.0,90,0.00,,---,0.00,VWS V14.01,2013-06-04 04:14:00,
2013-06-04 00:15:00,66.4,63.4,29.90,SSE,153,0.0,0.0,90,0.00,,---,0.00,VWS V14.01,2013-06-04 04:15:00,
2013-06-04 00:16:00,66.4,63.4,29.90,SSE,153,0.0,0.0,90,0.00,,---,0.00,VWS V14.01,2013-06-04 04:16:00,
2013-06-04 00:18:00,66.4,63.1,29.90,North,1,0.0,2.0,89,0.00,,---,0.00,VWS V14.01,2013-06-04 04:18:00,
2013-06-04 00:20:00,66.4,63.1,29.90,North,1,0.0,2.0,89,0.00,,---,0.00,VWS V14.01,2013-06-04 04:20:00,
2013-06-04 00:22:00,66.4,63.1,29.90,North,1,0.0,2.0,89,0.00,,---,0.00,VWS V14.01,2013-06-04 04:22:00,
2013-06-04 00:24:00,66.4,62.7,29.90,North,1,0.0,2.0,88,0.00,,---,0.00,VWS V14.01,2013-06-04 04:24:00,
2013-06-04 00:26:00,66.4,63.1,29.90,North,1,0.0,2.0,89,0.00,,---,0.00,VWS V14.01,2013-06-04 04:26:00,
2013-06-04 00:28:00,66.4,63.4,29.90,North,1,0.0,2.0,90,0.00,,---,0.00,VWS V14.01,2013-06-04 04:28:00,
2013-06-04 00:30:00,66.3,63.3,29.90,North,1,0.0,2.0,90,0.00,,---,0.00,VWS V14.01,2013-06-04 04:30:00,
2013-06-04 00:32:00,66.3,63.3,29.90,North,1,0.0,0.0,90,0.00,,---,0.00,VWS V14.01,2013-06-04 04:32:00,
2013-06-04 00:34:00,66.3,63.3,29.90,North,1,0.0,0.0,90,0.00,,---,0.00,VWS V14.01,2013-06-04 04:34:00,
2013-06-04 00:36:00,66.1,63.1,29.90,North,1,0.0,0.0,90,0.00,,---,0.00,VWS V14.01,2013-06-04 04:36:00,
2013-06-04 00:38:00,66.1,63.1,29.90,North,1,0.0,0.0,90,0.00,,---,0.00,VWS V14.01,2013-06-04 04:38:00,
2013-06-04 00:40:00,66.1,63.1,29.90,North,1,0.0,0.0,90,0.00,,---,0.00,VWS V14.01,2013-06-04 04:40:00,
2013-06-04 00:42:00,66.0,63.0,29.90,North,1,0.0,1.0,90,0.00,,---,0.00,VWS V14.01,2013-06-04 04:42:00,
2013-06-04 00:44:00,66.0,63.3,29.90,North,1,0.0,1.0,91,0.00,,---,0.00,VWS V14.01,2013-06-04 04:44:00,
2013-06-04 00:45:00,66.0,63.3,29.90,North,1,0.0,1.0,91,0.00,,---,0.00,VWS V14.01,2013-06-04 04:45:00,
2013-06-04 00:46:00,66.0,63.3,29.90,North,1,0.0,0.0,91,0.00,,---,0.00,VWS V14.01,2013-06-04 04:46:00,
2013-06-04 00:48:00,66.0,63.3,29.90,North,1,1.0,1.0,91,0.00,,---,0.00,VWS V14.01,2013-06-04 04:48:00,
2013-06-04 00:50:00,66.0,63.3,29.90,North,1,0.0,2.0,91,0.00,,---,0.00,VWS V14.01,2013-06-04 04:50:00,
2013-06-04 00:53:00,65.8,63.1,29.90,North,1,0.0,2.0,91,0.00,,---,0.00,VWS V14.01,2013-06-04 04:53:00,
2013-06-04 00:55:00,65.8,63.4,29.90,North,1,0.0,2.0,92,0.00,,---,0.00,VWS V14.01,2013-06-04 04:55:00,
2013-06-04 00:57:00,65.8,63.4,29.90,North,1,0.0,2.0,92,0.00,,---,0.00,VWS V14.01,2013-06-04 04:57:00,
2013-06-04 00:59:00,65.8,63.4,29.90,North,1,0.0,2.0,92,0.00,,---,0.00,VWS V14.01,2013-06-04 04:59:00,
2013-06-04 01:00:00,65.8,63.4,29.90,North,1,0.0,2.0,92,0.00,,---,0.00,VWS V14.01,2013-06-04 05:00:00,
2013-06-04 01:01:00,65.8,63.4,29.90,North,1,0.0,0.0,92,0.00,,---,0.00,VWS V14.01,2013-06-04 05:01:00,
2013-06-04 01:03:00,65.6,63.2,29.90,North,1,0.0,0.0,92,0.00,,---,0.00,VWS V14.01,2013-06-04 05:03:00,
2013-06-04 01:05:00,65.6,63.2,29.90,North,1,0.0,0.0,92,0.00,,---,0.00,VWS V14.01,2013-06-04 05:05:00,
2013-06-04 01:07:00,65.6,63.2,29.90,North,1,0.0,0.0,92,0.00,,---,0.00,VWS V14.01,2013-06-04 05:07:00,
2013-06-04 01:09:00,65.6,63.2,29.90,North,1,0.0,0.0,92,0.00,,---,0.00,VWS V14.01,2013-06-04 05:09:00,
2013-06-04 01:11:00,65.5,63.1,29.90,North,1,0.0,0.0,92,0.00,,---,0.00,VWS V14.01,2013-06-04 05:11:00,
2013-06-04 01:13:00,65.5,63.1,29.90,North,1,0.0,0.0,92,0.00,,---,0.00,VWS V14.01,2013-06-04 05:13:00,
2013-06-04 01:15:00,65.5,63.1,29.90,North,1,0.0,0.0,92,0.00,,---,0.00,VWS V14.01,2013-06-04 05:15:00,
2013-06-04 01:17:00,65.5,63.1,29.90,North,1,0.0,0.0,92,0.00,,---,0.00,VWS V14.01,2013-06-04 05:17:00,
2013-06-04 01:19:00,65.3,62.9,29.90,North,1,0.0,0.0,92,0.00,,---,0.00,VWS V14.01,2013-06-04 05:19:00,
2013-06-04 01:21:00,65.3,62.9,29.90,North,1,0.0,0.0,92,0.00,,---,0.00,VWS V14.01,2013-06-04 05:21:00,
2013-06-04 01:23:00,65.3,62.9,29.90,North,1,0.0,0.0,92,0.00,,---,0.00,VWS V14.01,2013-06-04 05:23:00,
2013-06-04 01:25:00,65.2,62.8,29.90,North,1,0.0,0.0,92,0.00,,---,0.00,VWS V14.01,2013-06-04 05:25:00,
2013-06-04 01:27:00,65.2,62.8,29.90,North,1,0.0,0.0,92,0.00,,---,0.00,VWS V14.01,2013-06-04 05:27:00,
2013-06-04 01:29:00,65.2,62.8,29.90,North,1,0.0,0.0,92,0.00,,---,0.00,VWS V14.01,2013-06-04 05:29:00,
2013-06-04 01:30:00,65.2,62.8,29.90,North,1,0.0,0.0,92,0.00,,---,0.00,VWS V14.01,2013-06-04 05:30:00,
2013-06-04 01:31:00,65.2,62.8,29.90,North,1,0.0,0.0,92,0.00,,---,0.00,VWS V14.01,2013-06-04 05:31:00,
2013-06-04 01:33:00,65.0,62.6,29.90,North,1,0.0,0.0,92,0.00,,---,0.00,VWS V14.01,2013-06-04 05:33:00,
2013-06-04 01:35:00,65.0,62.6,29.90,North,1,0.0,0.0,92,0.00,,---,0.00,VWS V14.01,2013-06-04 05:35:00,
2013-06-04 01:37:00,64.8,62.4,29.90,North,1,0.0,0.0,92,0.00,,---,0.00,VWS V14.01,2013-06-04 05:37:00,
2013-06-04 01:39:00,64.8,62.4,29.90,North,1,0.0,0.0,92,0.00,,---,0.00,VWS V14.01,2013-06-04 05:39:00,
2013-06-04 01:41:00,64.7,62.3,29.90,North,1,0.0,0.0,92,0.00,,---,0.00,VWS V14.01,2013-06-04 05:41:00,
2013-06-04 01:43:00,64.7,62.6,29.90,North,1,0.0,0.0,93,0.00,,---,0.00,VWS V14.01,2013-06-04 05:43:00,
2013-06-04 01:45:00,64.7,62.6,29.91,North,1,0.0,0.0,93,0.00,,---,0.00,VWS V14.01,2013-06-04 05:45:00,
2013-06-04 01:47:00,64.5,62.4,29.91,North,1,0.0,0.0,93,0.00,,---,0.00,VWS V14.01,2013-06-04 05:47:00,
2013-06-04 01:49:00,64.5,62.4,29.91,North,1,0.0,0.0,93,0.00,,---,0.00,VWS V14.01,2013-06-04 05:49:00,
2013-06-04 01:51:00,64.5,62.4,29.91,North,1,0.0,0.0,93,0.00,,---,0.00,VWS V14.01,2013-06-04 05:51:00,
2013-06-04 01:53:00,64.3,62.2,29.91,North,1,0.0,0.0,93,0.00,,---,0.00,VWS V14.01,2013-06-04 05:53:00,
2013-06-04 01:55:00,64.3,62.2,29.91,North,1,0.0,0.0,93,0.00,,---,0.00,VWS V14.01,2013-06-04 05:55:00,
2013-06-04 01:57:00,64.3,62.2,29.91,North,1,0.0,0.0,93,0.00,,---,0.00,VWS V14.01,2013-06-04 05:57:00,
2013-06-04 01:59:00,64.2,62.4,29.90,North,1,0.0,0.0,94,0.00,,---,0.00,VWS V14.01,2013-06-04 05:59:00,
2013-06-04 02:00:00,64.2,62.4,29.90,North,1,0.0,0.0,94,0.00,,---,0.00,VWS V14.01,2013-06-04 06:00:00,
2013-06-04 02:01:00,64.0,62.2,29.90,North,1,0.0,0.0,94,0.00,,---,0.00,VWS V14.01,2013-06-04 06:01:00,
2013-06-04 02:03:00,64.0,62.2,29.90,North,1,0.0,0.0,94,0.00,,---,0.00,VWS V14.01,2013-06-04 06:03:00,
2013-06-04 02:05:00,63.9,62.1,29.90,North,1,0.0,0.0,94,0.00,,---,0.00,VWS V14.01,2013-06-04 06:05:00,
2013-06-04 02:07:00,63.9,62.1,29.90,North,1,0.0,0.0,94,0.00,,---,0.00,VWS V14.01,2013-06-04 06:07:00,
2013-06-04 02:09:00,63.7,62.2,29.90,North,1,0.0,0.0,95,0.00,,---,0.00,VWS V14.01,2013-06-04 06:09:00,
2013-06-04 02:11:00,63.7,62.2,29.90,North,1,0.0,0.0,95,0.00,,---,0.00,VWS V14.01,2013-06-04 06:11:00,
2013-06-04 02:13:00,63.5,62.0,29.90,North,1,0.0,0.0,95,0.00,,---,0.00,VWS V14.01,2013-06-04 06:13:00,
2013-06-04 02:15:00,63.5,62.0,29.91,North,1,0.0,0.0,95,0.00,,---,0.00,VWS V14.01,2013-06-04 06:15:00,
2013-06-04 02:17:00,63.5,62.0,29.91,North,1,0.0,0.0,95,0.00,,---,0.00,VWS V14.01,2013-06-04 06:17:00,
2013-06-04 02:19:00,63.5,62.0,29.91,North,1,0.0,0.0,95,0.00,,---,0.00,VWS V14.01,2013-06-04 06:19:00,
2013-06-04 02:21:00,63.5,61.8,29.91,North,1,0.0,0.0,94,0.00,,---,0.00,VWS V14.01,2013-06-04 06:21:00,
2013-06-04 02:23:00,63.5,62.0,29.91,North,1,0.0,0.0,95,0.00,,---,0.00,VWS V14.01,2013-06-04 06:23:00,
2013-06-04 02:25:00,63.5,62.0,29.91,North,1,0.0,0.0,95,0.00,,---,0.00,VWS V14.01,2013-06-04 06:25:00,
2013-06-04 02:27:00,63.5,62.0,29.91,North,1,0.0,0.0,95,0.00,,---,0.00,VWS V14.01,2013-06-04 06:27:00,
2013-06-04 02:29:00,63.5,62.0,29.90,North,1,0.0,0.0,95,0.00,,---,0.00,VWS V14.01,2013-06-04 06:29:00,
2013-06-04 02:30:00,63.5,62.0,29.90,North,1,0.0,0.0,95,0.00,,---,0.00,VWS V14.01,2013-06-04 06:30:00,
2013-06-04 02:31:00,63.5,62.0,29.90,North,1,0.0,0.0,95,0.00,,---,0.00,VWS V14.01,2013-06-04 06:31:00,
2013-06-04 02:33:00,63.5,62.0,29.90,North,1,0.0,0.0,95,0.00,,---,0.00,VWS V14.01,2013-06-04 06:33:00,
2013-06-04 02:35:00,63.5,62.0,29.90,North,1,0.0,1.0,95,0.00,,---,0.00,VWS V14.01,2013-06-04 06:35:00,
2013-06-04 02:37:00,63.5,62.0,29.90,North,1,2.0,2.0,95,0.00,,---,0.00,VWS V14.01,2013-06-04 06:37:00,
2013-06-04 02:39:00,63.5,62.0,29.90,North,1,0.0,2.0,95,0.00,,---,0.00,VWS V14.01,2013-06-04 06:39:00,
2013-06-04 02:41:00,63.5,62.0,29.90,North,1,0.0,2.0,95,0.00,,---,0.00,VWS V14.01,2013-06-04 06:41:00,
2013-06-04 02:43:00,63.5,62.0,29.90,North,2,0.0,2.0,95,0.00,,---,0.00,VWS V14.01,2013-06-04 06:43:00,
2013-06-04 02:45:00,63.5,62.0,29.90,North,2,0.0,2.0,95,0.00,,---,0.00,VWS V14.01,2013-06-04 06:45:00,
2013-06-04 02:47:00,63.5,62.0,29.90,North,2,0.0,0.0,95,0.00,,---,0.00,VWS V14.01,2013-06-04 06:47:00,
2013-06-04 02:49:00,63.4,62.0,29.90,North,2,0.0,1.0,95,0.00,,---,0.00,VWS V14.01,2013-06-04 06:49:00,
2013-06-04 02:51:00,63.4,62.0,29.90,North,2,0.0,1.0,95,0.00,,---,0.00,VWS V14.01,2013-06-04 06:51:00,
2013-06-04 02:53:00,63.4,62.0,29.90,North,2,0.0,1.0,95,0.00,,---,0.00,VWS V14.01,2013-06-04 06:53:00,
2013-06-04 02:55:00,63.2,61.8,29.90,North,2,0.0,1.0,95,0.00,,---,0.00,VWS V14.01,2013-06-04 06:55:00,
2013-06-04 02:57:00,63.2,61.8,29.90,North,2,0.0,1.0,95,0.00,,---,0.00,VWS V14.01,2013-06-04 06:57:00,
2013-06-04 02:59:00,63.2,61.8,29.90,North,2,0.0,1.0,95,0.00,,---,0.00,VWS V14.01,2013-06-04 06:59:00,
2013-06-04 03:00:00,63.1,61.7,29.90,North,2,0.0,1.0,95,0.00,,---,0.00,VWS V14.01,2013-06-04 07:00:00,
2013-06-04 03:01:00,63.1,61.7,29.90,North,2,0.0,0.0,95,0.00,,---,0.00,VWS V14.01,2013-06-04 07:01:00,
2013-06-04 03:03:00,62.9,61.5,29.90,North,2,1.0,1.0,95,0.00,,---,0.00,VWS V14.01,2013-06-04 07:03:00,
2013-06-04 03:05:00,62.9,61.5,29.90,North,1,0.0,3.0,95,0.00,,---,0.00,VWS V14.01,2013-06-04 07:05:00,
2013-06-04 03:07:00,62.7,61.2,29.90,North,1,0.0,3.0,95,0.00,,---,0.00,VWS V14.01,2013-06-04 07:07:00,
2013-06-04 03:09:00,62.7,61.5,29.90,North,0,2.0,3.0,96,0.00,,---,0.00,VWS V14.01,2013-06-04 07:09:00,
2013-06-04 03:11:00,62.7,61.5,29.90,North,0,0.0,3.0,96,0.00,,---,0.00,VWS V14.01,2013-06-04 07:11:00,
2013-06-04 03:13:00,62.6,61.5,29.90,North,0,0.0,3.0,96,0.00,,---,0.00,VWS V14.01,2013-06-04 07:13:00,
2013-06-04 03:15:00,62.6,61.2,29.90,North,0,0.0,3.0,95,0.00,,---,0.00,VWS V14.01,2013-06-04 07:15:00,
2013-06-04 03:18:00,62.6,61.2,29.90,North,0,1.0,2.0,95,0.00,,---,0.00,VWS V14.01,2013-06-04 07:18:00,
2013-06-04 03:19:00,62.6,61.2,29.90,North,0,0.0,2.0,95,0.00,,---,0.00,VWS V14.01,2013-06-04 07:19:00,
2013-06-04 03:22:00,62.6,61.2,29.90,North,0,0.0,2.0,95,0.00,,---,0.00,VWS V14.01,2013-06-04 07:22:00,
2013-06-04 03:24:00,62.4,60.7,29.90,North,0,0.0,2.0,94,0.00,,---,0.00,VWS V14.01,2013-06-04 07:24:00,
2013-06-04 03:26:00,62.4,60.7,29.90,North,0,0.0,2.0,94,0.00,,---,0.00,VWS V14.01,2013-06-04 07:26:00,
2013-06-04 03:28:00,62.4,60.3,29.90,North,0,0.0,2.0,93,0.00,,---,0.00,VWS V14.01,2013-06-04 07:28:00,
2013-06-04 03:30:00,62.4,60.0,29.90,North,0,0.0,2.0,92,0.00,,---,0.00,VWS V14.01,2013-06-04 07:30:00,
2013-06-04 03:32:00,62.4,60.0,29.90,North,0,0.0,0.0,92,0.00,,---,0.00,VWS V14.01,2013-06-04 07:32:00,
2013-06-04 03:34:00,62.6,59.9,29.90,North,0,0.0,0.0,91,0.00,,---,0.00,VWS V14.01,2013-06-04 07:34:00,
2013-06-04 03:36:00,62.6,59.9,29.90,North,0,0.0,0.0,91,0.00,,---,0.00,VWS V14.01,2013-06-04 07:36:00,
2013-06-04 03:38:00,62.6,59.9,29.90,North,0,0.0,0.0,91,0.00,,---,0.00,VWS V14.01,2013-06-04 07:38:00,
2013-06-04 03:40:00,62.6,59.6,29.90,North,0,0.0,1.0,90,0.00,,---,0.00,VWS V14.01,2013-06-04 07:40:00,
2013-06-04 03:42:00,62.7,59.4,29.90,North,0,0.0,1.0,89,0.00,,---,0.00,VWS V14.01,2013-06-04 07:42:00,
2013-06-04 03:44:00,62.7,59.4,29.90,North,0,0.0,1.0,89,0.00,,---,0.00,VWS V14.01,2013-06-04 07:44:00,
2013-06-04 03:45:00,62.7,59.4,29.90,North,0,0.0,1.0,89,0.00,,---,0.00,VWS V14.01,2013-06-04 07:45:00,
2013-06-04 03:46:00,62.7,59.4,29.90,North,0,0.0,0.0,89,0.00,,---,0.00,VWS V14.01,2013-06-04 07:46:00,
2013-06-04 03:48:00,62.7,59.4,29.90,North,0,0.0,0.0,89,0.00,,---,0.00,VWS V14.01,2013-06-04 07:48:00,
2013-06-04 03:50:00,62.7,59.4,29.90,North,0,1.0,2.0,89,0.00,,---,0.00,VWS V14.01,2013-06-04 07:50:00,
2013-06-04 03:52:00,62.7,59.4,29.90,North,0,0.0,2.0,89,0.00,,---,0.00,VWS V14.01,2013-06-04 07:52:00,
2013-06-04 03:54:00,62.7,59.4,29.90,North,0,0.0,2.0,89,0.00,,---,0.00,VWS V14.01,2013-06-04 07:54:00,
2013-06-04 03:56:00,62.7,59.1,29.90,North,0,0.0,2.0,88,0.00,,---,0.00,VWS V14.01,2013-06-04 07:56:00,
2013-06-04 03:58:00,62.7,59.1,29.90,North,0,0.0,2.0,88,0.00,,---,0.00,VWS V14.01,2013-06-04 07:58:00,
2013-06-04 04:00:00,62.7,59.1,29.91,North,0,0.0,2.0,88,0.00,,---,0.00,VWS V14.01,2013-06-04 08:00:00,
2013-06-04 04:02:00,62.7,59.1,29.91,North,0,0.0,0.0,88,0.00,,---,0.00,VWS V14.01,2013-06-04 08:02:00,
2013-06-04 04:04:00,62.7,59.1,29.91,North,0,0.0,2.0,88,0.00,,---,0.00,VWS V14.01,2013-06-04 08:04:00,
2013-06-04 04:06:00,62.7,59.1,29.91,North,0,0.0,2.0,88,0.00,,---,0.00,VWS V14.01,2013-06-04 08:06:00,
2013-06-04 04:08:00,62.7,59.1,29.91,North,359,0.0,2.0,88,0.00,,---,0.00,VWS V14.01,2013-06-04 08:08:00,
2013-06-04 04:10:00,62.7,59.1,29.91,North,359,0.0,2.0,88,0.00,,---,0.00,VWS V14.01,2013-06-04 08:10:00,
2013-06-04 04:12:00,62.6,59.0,29.91,North,359,0.0,2.0,88,0.00,,---,0.00,VWS V14.01,2013-06-04 08:12:00,
2013-06-04 04:14:00,62.6,58.7,29.90,North,359,0.0,2.0,87,0.00,,---,0.00,VWS V14.01,2013-06-04 08:14:00,
2013-06-04 04:15:00,62.6,58.7,29.90,North,359,0.0,2.0,87,0.00,,---,0.00,VWS V14.01,2013-06-04 08:15:00,
2013-06-04 04:16:00,62.6,58.7,29.90,North,359,0.0,0.0,87,0.00,,---,0.00,VWS V14.01,2013-06-04 08:16:00,
2013-06-04 04:18:00,62.6,58.7,29.90,North,359,0.0,0.0,87,0.00,,---,0.00,VWS V14.01,2013-06-04 08:18:00,
2013-06-04 04:20:00,62.6,58.7,29.90,North,359,0.0,2.0,87,0.00,,---,0.00,VWS V14.01,2013-06-04 08:20:00,
2013-06-04 04:22:00,62.6,58.7,29.90,North,359,0.0,2.0,87,0.00,,---,0.00,VWS V14.01,2013-06-04 08:22:00,
2013-06-04 04:24:00,62.6,58.7,29.90,North,359,0.0,2.0,87,0.00,,---,0.00,VWS V14.01,2013-06-04 08:24:00,
2013-06-04 04:26:00,62.6,58.7,29.90,North,359,0.0,2.0,87,0.00,,---,0.00,VWS V14.01,2013-06-04 08:26:00,
2013-06-04 04:28:00,62.6,58.7,29.90,North,359,0.0,2.0,87,0.00,,---,0.00,VWS V14.01,2013-06-04 08:28:00,
2013-06-04 04:30:00,62.6,58.7,29.91,North,359,0.0,2.0,87,0.00,,---,0.00,VWS V14.01,2013-06-04 08:30:00,
2013-06-04 04:32:00,62.6,58.7,29.91,North,359,0.0,0.0,87,0.00,,---,0.00,VWS V14.01,2013-06-04 08:32:00,
2013-06-04 04:34:00,62.6,58.7,29.91,North,359,0.0,2.0,87,0.00,,---,0.00,VWS V14.01,2013-06-04 08:34:00,
2013-06-04 04:36:00,62.6,58.7,29.91,North,359,0.0,2.0,87,0.00,,---,0.00,VWS V14.01,2013-06-04 08:36:00,
2013-06-04 04:38:00,62.6,58.7,29.91,North,359,0.0,2.0,87,0.00,,---,0.00,VWS V14.01,2013-06-04 08:38:00,
2013-06-04 04:40:00,62.4,58.5,29.91,North,359,0.0,2.0,87,0.00,,---,0.00,VWS V14.01,2013-06-04 08:40:00,
2013-06-04 04:42:00,62.4,58.5,29.91,North,359,0.0,2.0,87,0.00,,---,0.00,VWS V14.01,2013-06-04 08:42:00,
2013-06-04 04:44:00,62.4,58.5,29.91,North,359,0.0,2.0,87,0.00,,---,0.00,VWS V14.01,2013-06-04 08:44:00,
2013-06-04 04:45:00,62.4,58.5,29.91,North,359,0.0,2.0,87,0.00,,---,0.00,VWS V14.01,2013-06-04 08:45:00,
2013-06-04 04:46:00,62.4,58.5,29.91,North,359,0.0,1.0,87,0.00,,---,0.00,VWS V14.01,2013-06-04 08:46:00,
2013-06-04 04:48:00,62.4,58.5,29.91,North,359,0.0,1.0,87,0.00,,---,0.00,VWS V14.01,2013-06-04 08:48:00,
2013-06-04 04:50:00,62.3,58.7,29.91,North,359,0.0,1.0,88,0.00,,---,0.00,VWS V14.01,2013-06-04 08:50:00,
2013-06-04 04:52:00,62.3,58.7,29.91,North,359,0.0,1.0,88,0.00,,---,0.00,VWS V14.01,2013-06-04 08:52:00,
2013-06-04 04:54:00,62.3,58.7,29.91,North,359,0.0,1.0,88,0.00,,---,0.00,VWS V14.01,2013-06-04 08:54:00,
2013-06-04 04:56:00,62.3,58.7,29.91,North,359,0.0,1.0,88,0.00,,---,0.00,VWS V14.01,2013-06-04 08:56:00,
2013-06-04 04:58:00,62.1,58.5,29.91,North,359,0.0,1.0,88,0.00,,---,0.00,VWS V14.01,2013-06-04 08:58:00,
2013-06-04 05:00:00,62.1,58.8,29.92,North,359,0.0,1.0,89,0.00,,---,0.00,VWS V14.01,2013-06-04 09:00:00,
2013-06-04 05:02:00,62.0,58.7,29.92,North,359,0.0,0.0,89,0.00,,---,0.00,VWS V14.01,2013-06-04 09:02:00,
2013-06-04 05:04:00,62.0,58.7,29.92,North,359,0.0,0.0,89,0.00,,---,0.00,VWS V14.01,2013-06-04 09:04:00,
2013-06-04 05:06:00,62.0,58.7,29.92,North,359,0.0,2.0,89,0.00,,---,0.00,VWS V14.01,2013-06-04 09:06:00,
2013-06-04 05:08:00,61.8,58.8,29.92,North,359,0.0,2.0,90,0.00,,---,0.00,VWS V14.01,2013-06-04 09:08:00,
2013-06-04 05:10:00,61.8,58.8,29.92,North,359,0.0,2.0,90,0.00,,---,0.00,VWS V14.01,2013-06-04 09:10:00,
2013-06-04 05:12:00,61.8,58.8,29.92,North,359,0.0,2.0,90,0.00,,---,0.00,VWS V14.01,2013-06-04 09:12:00,
2013-06-04 05:14:00,61.6,58.6,29.92,North,359,0.0,2.0,90,0.00,,---,0.00,VWS V14.01,2013-06-04 09:14:00,
2013-06-04 05:15:00,61.6,58.6,29.92,North,359,0.0,2.0,90,0.00,,---,0.00,VWS V14.01,2013-06-04 09:15:00,
2013-06-04 05:16:00,61.6,58.6,29.92,North,359,0.0,0.0,90,0.00,,---,0.00,VWS V14.01,2013-06-04 09:16:00,
2013-06-04 05:18:00,61.5,58.5,29.92,North,359,0.0,0.0,90,0.00,,---,0.00,VWS V14.01,2013-06-04 09:18:00,
2013-06-04 05:20:00,61.5,58.8,29.92,North,359,0.0,3.0,91,0.00,,---,0.00,VWS V14.01,2013-06-04 09:20:00,
2013-06-04 05:22:00,61.5,58.8,29.92,NW,305,2.0,3.0,91,0.00,,---,0.00,VWS V14.01,2013-06-04 09:22:00,
2013-06-04 05:24:00,61.3,58.7,29.92,NNW,348,2.0,5.0,91,0.00,,---,0.00,VWS V14.01,2013-06-04 09:24:00,
2013-06-04 05:26:00,61.3,58.3,29.92,NNW,330,2.0,5.0,90,0.00,,---,0.00,VWS V14.01,2013-06-04 09:26:00,
2013-06-04 05:28:00,61.3,58.3,29.92,NNW,339,0.0,5.0,90,0.00,,---,0.00,VWS V14.01,2013-06-04 09:28:00,
2013-06-04 05:30:00,61.3,58.3,29.92,North,11,3.0,5.0,90,0.00,,---,0.00,VWS V14.01,2013-06-04 09:30:00,
2013-06-04 05:33:00,61.3,58.3,29.92,North,353,1.0,5.0,90,0.00,,---,0.00,VWS V14.01,2013-06-04 09:33:00,
2013-06-04 05:35:00,61.3,58.3,29.92,North,359,1.0,5.0,90,0.00,,---,0.00,VWS V14.01,2013-06-04 09:35:00,
2013-06-04 05:37:00,61.3,58.3,29.92,North,359,0.0,5.0,90,0.00,,---,0.00,VWS V14.01,2013-06-04 09:37:00,
2013-06-04 05:38:00,61.3,58.3,29.92,North,359,0.0,5.0,90,0.00,,---,0.00,VWS V14.01,2013-06-04 09:38:00,
2013-06-04 05:41:00,61.3,58.3,29.92,North,359,2.0,5.0,90,0.00,,---,0.00,VWS V14.01,2013-06-04 09:41:00,
2013-06-04 05:43:00,61.3,58.3,29.92,NW,316,3.0,5.0,90,0.00,,---,0.00,VWS V14.01,2013-06-04 09:43:00,
2013-06-04 05:45:00,61.3,58.3,29.93,NW,316,0.0,5.0,90,0.00,,---,0.00,VWS V14.01,2013-06-04 09:45:00,
2013-06-04 05:47:00,61.3,58.3,29.93,NW,316,0.0,0.0,90,0.00,,---,0.00,VWS V14.01,2013-06-04 09:47:00,
2013-06-04 05:49:00,61.3,58.3,29.93,NW,316,0.0,1.0,90,0.00,,---,0.00,VWS V14.01,2013-06-04 09:49:00,
2013-06-04 05:51:00,61.3,58.3,29.93,NW,316,0.0,2.0,90,0.00,,---,0.00,VWS V14.01,2013-06-04 09:51:00,
2013-06-04 05:53:00,61.3,58.3,29.93,NW,316,0.0,2.0,90,0.00,,---,0.00,VWS V14.01,2013-06-04 09:53:00,
2013-06-04 05:55:00,61.3,58.3,29.93,NW,316,0.0,2.0,90,0.00,,---,0.00,VWS V14.01,2013-06-04 09:55:00,
2013-06-04 05:57:00,61.3,58.3,29.93,NW,316,0.0,2.0,90,0.00,,---,0.00,VWS V14.01,2013-06-04 09:57:00,
2013-06-04 05:59:00,61.3,58.3,29.94,NW,316,0.0,2.0,90,0.00,,---,0.00,VWS V14.01,2013-06-04 09:59:00,
2013-06-04 06:00:00,61.3,58.0,29.94,NW,316,1.0,2.0,89,0.00,,---,0.00,VWS V14.01,2013-06-04 10:00:00,
2013-06-04 06:01:00,61.3,58.0,29.94,NW,316,0.0,2.0,89,0.00,,---,0.00,VWS V14.01,2013-06-04 10:01:00,
2013-06-04 06:03:00,61.5,58.2,29.94,NW,316,0.0,2.0,89,0.00,,---,0.00,VWS V14.01,2013-06-04 10:03:00,
2013-06-04 06:05:00,61.5,58.2,29.94,NNW,348,1.0,3.0,89,0.00,,---,0.00,VWS V14.01,2013-06-04 10:05:00,
2013-06-04 06:07:00,61.5,57.9,29.94,NNW,348,0.0,3.0,88,0.00,,---,0.00,VWS V14.01,2013-06-04 10:07:00,
2013-06-04 06:09:00,61.6,58.0,29.94,NNW,347,0.0,3.0,88,0.00,,---,0.00,VWS V14.01,2013-06-04 10:09:00,
2013-06-04 06:11:00,61.6,58.0,29.94,NNW,347,3.0,3.0,88,0.00,,---,0.00,VWS V14.01,2013-06-04 10:11:00,
2013-06-04 06:13:00,61.6,58.0,29.94,NNW,348,1.0,4.0,88,0.00,,---,0.00,VWS V14.01,2013-06-04 10:13:00,
2013-06-04 06:15:00,61.8,58.2,29.94,NNW,348,3.0,4.0,88,0.00,,---,0.00,VWS V14.01,2013-06-04 10:15:00,
2013-06-04 06:17:00,61.8,58.2,29.94,North,359,0.0,3.0,88,0.00,,---,0.00,VWS V14.01,2013-06-04 10:17:00,
2013-06-04 06:19:00,61.8,58.2,29.94,NNW,347,0.0,3.0,88,0.00,,---,0.00,VWS V14.01,2013-06-04 10:19:00,
2013-06-04 06:21:00,61.8,57.9,29.94,North,349,0.0,3.0,87,0.00,,---,0.00,VWS V14.01,2013-06-04 10:21:00,
2013-06-04 06:23:00,62.0,58.1,29.94,North,349,1.0,3.0,87,0.00,,---,0.00,VWS V14.01,2013-06-04 10:23:00,
2013-06-04 06:25:00,62.0,58.1,29.94,North,349,0.0,3.0,87,0.00,,---,0.00,VWS V14.01,2013-06-04 10:25:00,
2013-06-04 06:27:00,62.0,58.1,29.94,North,349,0.0,3.0,87,0.00,,---,0.00,VWS V14.01,2013-06-04 10:27:00,
2013-06-04 06:29:00,62.0,58.1,29.95,North,349,0.0,3.0,87,0.00,,---,0.00,VWS V14.01,2013-06-04 10:29:00,
2013-06-04 06:30:00,62.0,58.1,29.95,North,349,0.0,3.0,87,0.00,,---,0.00,VWS V14.01,2013-06-04 10:30:00,
2013-06-04 06:31:00,62.0,58.1,29.95,North,349,0.0,0.0,87,0.00,,---,0.00,VWS V14.01,2013-06-04 10:31:00,
2013-06-04 06:33:00,62.1,58.2,29.95,North,349,0.0,2.0,87,0.00,,---,0.00,VWS V14.01,2013-06-04 10:33:00,
2013-06-04 06:35:00,62.1,58.2,29.95,North,349,0.0,2.0,87,0.00,,---,0.00,VWS V14.01,2013-06-04 10:35:00,
2013-06-04 06:37:00,62.1,58.2,29.95,North,349,0.0,2.0,87,0.00,,---,0.00,VWS V14.01,2013-06-04 10:37:00,
2013-06-04 06:39:00,62.1,58.2,29.95,North,349,2.0,3.0,87,0.00,,---,0.00,VWS V14.01,2013-06-04 10:39:00,
2013-06-04 06:41:00,62.1,58.2,29.95,North,349,0.0,3.0,87,0.00,,---,0.00,VWS V14.01,2013-06-04 10:41:00,
2013-06-04 06:43:00,62.3,58.4,29.95,North,1,3.0,3.0,87,0.00,,---,0.00,VWS V14.01,2013-06-04 10:43:00,
2013-06-04 06:45:00,62.3,58.4,29.95,North,1,0.0,3.0,87,0.00,,---,0.00,VWS V14.01,2013-06-04 10:45:00,
2013-06-04 06:47:00,62.3,58.4,29.95,North,1,0.0,3.0,87,0.00,,---,0.00,VWS V14.01,2013-06-04 10:47:00,
2013-06-04 06:49:00,62.4,58.5,29.95,North,1,0.0,3.0,87,0.00,,---,0.00,VWS V14.01,2013-06-04 10:49:00,
2013-06-04 06:51:00,62.4,58.2,29.95,North,1,0.0,3.0,86,0.00,,---,0.00,VWS V14.01,2013-06-04 10:51:00,
2013-06-04 06:53:00,62.4,58.2,29.95,North,1,0.0,3.0,86,0.00,,---,0.00,VWS V14.01,2013-06-04 10:53:00,
2013-06-04 06:55:00,62.6,58.4,29.95,North,1,0.0,3.0,86,0.00,,---,0.00,VWS V14.01,2013-06-04 10:55:00,
2013-06-04 06:57:00,62.6,58.4,29.95,North,1,0.0,3.0,86,0.00,,---,0.00,VWS V14.01,2013-06-04 10:57:00,
2013-06-04 06:59:00,62.6,58.4,29.96,North,1,0.0,3.0,86,0.00,,---,0.00,VWS V14.01,2013-06-04 10:59:00,
2013-06-04 07:00:00,62.6,58.4,29.96,North,1,0.0,3.0,86,0.00,,---,0.00,VWS V14.01,2013-06-04 11:00:00,
2013-06-04 07:01:00,62.7,58.5,29.96,North,1,0.0,0.0,86,0.00,,---,0.00,VWS V14.01,2013-06-04 11:01:00,
2013-06-04 07:03:00,62.7,58.5,29.96,North,1,0.0,0.0,86,0.00,,---,0.00,VWS V14.01,2013-06-04 11:03:00,
2013-06-04 07:05:00,62.7,58.5,29.96,North,1,2.0,2.0,86,0.00,,---,0.00,VWS V14.01,2013-06-04 11:05:00,
2013-06-04 07:07:00,62.9,58.7,29.96,North,1,0.0,2.0,86,0.00,,---,0.00,VWS V14.01,2013-06-04 11:07:00,
2013-06-04 07:09:00,62.9,59.0,29.96,North,1,0.0,2.0,87,0.00,,---,0.00,VWS V14.01,2013-06-04 11:09:00,
2013-06-04 07:11:00,62.9,59.0,29.96,North,1,0.0,2.0,87,0.00,,---,0.00,VWS V14.01,2013-06-04 11:11:00,
2013-06-04 07:13:00,63.1,59.2,29.96,North,1,0.0,2.0,87,0.00,,---,0.00,VWS V14.01,2013-06-04 11:13:00,
2013-06-04 07:15:00,63.1,59.2,29.97,North,1,0.0,2.0,87,0.00,,---,0.00,VWS V14.01,2013-06-04 11:15:00,
2013-06-04 07:17:00,63.1,59.2,29.97,North,7,1.0,1.0,87,0.00,,---,0.00,VWS V14.01,2013-06-04 11:17:00,
2013-06-04 07:19:00,63.2,59.3,29.97,NNE,12,2.0,3.0,87,0.00,,---,0.00,VWS V14.01,2013-06-04 11:19:00,
2013-06-04 07:21:00,63.2,59.0,29.97,North,359,0.0,3.0,86,0.00,,---,0.00,VWS V14.01,2013-06-04 11:21:00,
2013-06-04 07:23:00,63.2,59.0,29.97,NW,326,4.0,4.0,86,0.00,,---,0.00,VWS V14.01,2013-06-04 11:23:00,
2013-06-04 07:25:00,63.2,58.6,29.97,North,1,0.0,5.0,85,0.00,,---,0.00,VWS V14.01,2013-06-04 11:25:00,
2013-06-04 07:27:00,63.2,58.6,29.97,North,1,2.0,5.0,85,0.00,,---,0.00,VWS V14.01,2013-06-04 11:27:00,
2013-06-04 07:29:00,63.4,58.8,29.97,North,1,0.0,5.0,85,0.00,,---,0.00,VWS V14.01,2013-06-04 11:29:00,
2013-06-04 07:30:00,63.4,58.8,29.97,North,9,4.0,5.0,85,0.00,,---,0.00,VWS V14.01,2013-06-04 11:30:00,
2013-06-04 07:31:00,63.4,58.8,29.97,North,9,0.0,4.0,85,0.00,,---,0.00,VWS V14.01,2013-06-04 11:31:00,
2013-06-04 07:33:00,63.4,58.8,29.97,NW,317,0.0,4.0,85,0.00,,---,0.00,VWS V14.01,2013-06-04 11:33:00,
2013-06-04 07:35:00,63.5,58.9,29.97,NW,317,0.0,4.0,85,0.00,,---,0.00,VWS V14.01,2013-06-04 11:35:00,
2013-06-04 07:37:00,63.5,58.9,29.97,North,1,0.0,4.0,85,0.00,,---,0.00,VWS V14.01,2013-06-04 11:37:00,
2013-06-04 07:39:00,63.5,58.6,29.97,NNW,335,0.0,4.0,84,0.00,,---,0.00,VWS V14.01,2013-06-04 11:39:00,
2013-06-04 07:41:00,63.5,58.6,29.97,NNW,335,0.0,4.0,84,0.00,,---,0.00,VWS V14.01,2013-06-04 11:41:00,
2013-06-04 07:43:00,63.7,58.8,29.97,NNW,335,0.0,4.0,84,0.00,,---,0.00,VWS V14.01,2013-06-04 11:43:00,
2013-06-04 07:45:00,63.7,58.8,29.97,NNW,335,3.0,4.0,84,0.00,,---,0.00,VWS V14.01,2013-06-04 11:45:00,
2013-06-04 07:47:00,63.7,58.5,29.97,NNW,335,1.0,3.0,83,0.00,,---,0.00,VWS V14.01,2013-06-04 11:47:00,
2013-06-04 07:49:00,63.7,58.5,29.97,NNW,335,0.0,3.0,83,0.00,,---,0.00,VWS V14.01,2013-06-04 11:49:00,
2013-06-04 07:51:00,63.7,58.5,29.97,NNW,335,0.0,3.0,83,0.00,,---,0.00,VWS V14.01,2013-06-04 11:51:00,
2013-06-04 07:53:00,63.9,58.6,29.97,NNW,335,0.0,3.0,83,0.00,,---,0.00,VWS V14.01,2013-06-04 11:53:00,
2013-06-04 07:55:00,63.9,58.6,29.97,NNW,335,0.0,3.0,83,0.00,,---,0.00,VWS V14.01,2013-06-04 11:55:00,
2013-06-04 07:57:00,63.9,58.6,29.97,NNW,335,0.0,3.0,83,0.00,,---,0.00,VWS V14.01,2013-06-04 11:57:00,
2013-06-04 07:59:00,63.9,58.6,29.98,NNW,335,0.0,3.0,83,0.00,,---,0.00,VWS V14.01,2013-06-04 11:59:00,
2013-06-04 08:00:00,63.9,58.6,29.98,NNW,335,0.0,3.0,83,0.00,,---,0.00,VWS V14.01,2013-06-04 12:00:00,
2013-06-04 08:01:00,63.9,58.6,29.98,NNW,335,0.0,0.0,83,0.00,,---,0.00,VWS V14.01,2013-06-04 12:01:00,
2013-06-04 08:03:00,63.9,58.6,29.98,NNW,335,0.0,0.0,83,0.00,,---,0.00,VWS V14.01,2013-06-04 12:03:00,
2013-06-04 08:05:00,64.0,58.7,29.98,NNW,335,0.0,0.0,83,0.00,,---,0.00,VWS V14.01,2013-06-04 12:05:00,
2013-06-04 08:07:00,64.0,58.7,29.98,NNW,335,0.0,0.0,83,0.00,,---,0.00,VWS V14.01,2013-06-04 12:07:00,
2013-06-04 08:09:00,64.0,58.7,29.98,NNW,335,0.0,0.0,83,0.00,,---,0.00,VWS V14.01,2013-06-04 12:09:00,
2013-06-04 08:11:00,64.0,59.1,29.98,NNW,335,1.0,1.0,84,0.00,,---,0.00,VWS V14.01,2013-06-04 12:11:00,
2013-06-04 08:13:00,64.2,59.3,29.98,NNW,335,0.0,2.0,84,0.00,,---,0.00,VWS V14.01,2013-06-04 12:13:00,
2013-06-04 08:15:00,64.2,58.9,29.99,NNW,335,0.0,2.0,83,0.00,,---,0.00,VWS V14.01,2013-06-04 12:15:00,
2013-06-04 08:17:00,64.2,58.9,29.99,NNW,335,0.0,0.0,83,0.00,,---,0.00,VWS V14.01,2013-06-04 12:17:00,
2013-06-04 08:19:00,64.2,58.9,29.99,NNW,335,0.0,0.0,83,0.00,,---,0.00,VWS V14.01,2013-06-04 12:19:00,
2013-06-04 08:21:00,64.2,58.9,29.99,NNW,335,0.0,2.0,83,0.00,,---,0.00,VWS V14.01,2013-06-04 12:21:00,
2013-06-04 08:24:00,64.2,58.9,29.99,NNW,335,0.0,2.0,83,0.00,,---,0.00,VWS V14.01,2013-06-04 12:24:00,
2013-06-04 08:26:00,64.2,58.9,29.99,NNW,335,0.0,2.0,83,0.00,,---,0.00,VWS V14.01,2013-06-04 12:26:00,
2013-06-04 08:28:00,64.2,58.9,29.99,NNW,335,0.0,2.0,83,0.00,,---,0.00,VWS V14.01,2013-06-04 12:28:00,
2013-06-04 08:30:00,64.2,58.6,29.99,NNW,335,0.0,2.0,82,0.00,,---,0.00,VWS V14.01,2013-06-04 12:30:00,
2013-06-04 08:32:00,64.2,58.9,29.99,NNW,335,0.0,0.0,83,0.00,,---,0.00,VWS V14.01,2013-06-04 12:32:00,
2013-06-04 08:34:00,64.3,59.0,29.99,NNW,335,0.0,0.0,83,0.00,,---,0.00,VWS V14.01,2013-06-04 12:34:00,
2013-06-04 08:36:00,64.3,59.0,29.99,NNW,335,0.0,0.0,83,0.00,,---,0.00,VWS V14.01,2013-06-04 12:36:00,
2013-06-04 08:38:00,64.3,59.0,29.99,NNW,335,2.0,2.0,83,0.00,,---,0.00,VWS V14.01,2013-06-04 12:38:00,
2013-06-04 08:40:00,64.3,58.3,29.99,NNW,335,0.0,2.0,81,0.00,,---,0.00,VWS V14.01,2013-06-04 12:40:00,
2013-06-04 08:42:00,64.5,58.9,29.99,NNW,335,0.0,2.0,82,0.00,,---,0.00,VWS V14.01,2013-06-04 12:42:00,
2013-06-04 08:44:00,64.5,58.9,29.99,NNW,335,0.0,2.0,82,0.00,,---,0.00,VWS V14.01,2013-06-04 12:44:00,
2013-06-04 08:45:00,64.5,58.9,29.99,NNW,335,0.0,2.0,82,0.00,,---,0.00,VWS V14.01,2013-06-04 12:45:00,
2013-06-04 08:46:00,64.5,58.9,29.99,NNW,335,0.0,0.0,82,0.00,,---,0.00,VWS V14.01,2013-06-04 12:46:00,
2013-06-04 08:48:00,64.7,59.4,29.99,NNW,335,0.0,1.0,83,0.00,,---,0.00,VWS V14.01,2013-06-04 12:48:00,
2013-06-04 08:50:00,64.7,59.1,29.99,NNW,335,0.0,1.0,82,0.00,,---,0.00,VWS V14.01,2013-06-04 12:50:00,
2013-06-04 08:52:00,64.8,59.2,29.99,NNW,335,0.0,1.0,82,0.00,,---,0.00,VWS V14.01,2013-06-04 12:52:00,
2013-06-04 08:54:00,64.8,59.2,29.99,NNW,335,0.0,1.0,82,0.00,,---,0.00,VWS V14.01,2013-06-04 12:54:00,
2013-06-04 08:56:00,65.0,59.4,29.99,NNW,335,0.0,1.0,82,0.00,,---,0.00,VWS V14.01,2013-06-04 12:56:00,
2013-06-04 08:58:00,65.0,59.4,29.99,NNW,335,0.0,1.0,82,0.00,,---,0.00,VWS V14.01,2013-06-04 12:58:00,
2013-06-04 09:00:00,65.0,59.4,30.00,NNW,335,0.0,1.0,82,0.00,,---,0.00,VWS V14.01,2013-06-04 13:00:00,
2013-06-04 09:02:00,65.2,59.6,30.00,NNW,335,0.0,0.0,82,0.00,,---,0.00,VWS V14.01,2013-06-04 13:02:00,
2013-06-04 09:04:00,65.3,60.0,30.00,NNW,335,0.0,0.0,83,0.00,,---,0.00,VWS V14.01,2013-06-04 13:04:00,
2013-06-04 09:06:00,65.5,59.9,30.00,NNW,335,0.0,0.0,82,0.00,,---,0.00,VWS V14.01,2013-06-04 13:06:00,
2013-06-04 09:08:00,65.5,59.5,30.00,NNW,335,0.0,0.0,81,0.00,,---,0.00,VWS V14.01,2013-06-04 13:08:00,
2013-06-04 09:10:00,65.6,59.3,30.00,NNW,335,0.0,0.0,80,0.00,,---,0.00,VWS V14.01,2013-06-04 13:10:00,
2013-06-04 09:12:00,65.8,59.8,30.00,NNW,335,0.0,0.0,81,0.00,,---,0.00,VWS V14.01,2013-06-04 13:12:00,
2013-06-04 09:14:00,66.0,60.0,30.00,NNW,335,0.0,0.0,81,0.00,,---,0.00,VWS V14.01,2013-06-04 13:14:00,
2013-06-04 09:15:00,66.0,60.0,30.00,NNW,335,0.0,0.0,81,0.00,,---,0.00,VWS V14.01,2013-06-04 13:15:00,
2013-06-04 09:16:00,66.1,60.1,30.00,NNW,335,1.0,1.0,81,0.00,,---,0.00,VWS V14.01,2013-06-04 13:16:00,
2013-06-04 09:18:00,66.1,59.4,30.00,NNW,335,0.0,1.0,79,0.00,,---,0.00,VWS V14.01,2013-06-04 13:18:00,
2013-06-04 09:20:00,66.3,60.0,30.00,NNW,335,0.0,1.0,80,0.00,,---,0.00,VWS V14.01,2013-06-04 13:20:00,
2013-06-04 09:22:00,66.4,60.0,30.00,NNW,335,0.0,1.0,80,0.00,,---,0.00,VWS V14.01,2013-06-04 13:22:00,
2013-06-04 09:24:00,66.6,60.2,30.00,NNW,335,0.0,1.0,80,0.00,,---,0.00,VWS V14.01,2013-06-04 13:24:00,
2013-06-04 09:26:00,66.8,60.4,30.00,NNW,335,0.0,1.0,80,0.00,,---,0.00,VWS V14.01,2013-06-04 13:26:00,
2013-06-04 09:28:00,66.9,60.2,30.00,NNW,335,0.0,1.0,79,0.00,,---,0.00,VWS V14.01,2013-06-04 13:28:00,
2013-06-04 09:30:00,67.1,60.0,30.00,NNW,335,0.0,1.0,78,0.00,,---,0.00,VWS V14.01,2013-06-04 13:30:00,
2013-06-04 09:32:00,67.3,60.6,30.00,NNW,335,0.0,0.0,79,0.00,,---,0.00,VWS V14.01,2013-06-04 13:32:00,
2013-06-04 09:34:00,67.4,60.0,30.00,NNW,335,0.0,0.0,77,0.00,,---,0.00,VWS V14.01,2013-06-04 13:34:00,
2013-06-04 09:36:00,67.6,60.1,30.00,NNW,335,0.0,0.0,77,0.00,,---,0.00,VWS V14.01,2013-06-04 13:36:00,
2013-06-04 09:38:00,67.6,59.8,30.00,NNW,335,0.0,0.0,76,0.00,,---,0.00,VWS V14.01,2013-06-04 13:38:00,
2013-06-04 09:40:00,67.8,60.0,30.00,NNW,335,0.0,0.0,76,0.00,,---,0.00,VWS V14.01,2013-06-04 13:40:00,
2013-06-04 09:42:00,67.9,60.8,30.00,NNW,335,0.0,0.0,78,0.00,,---,0.00,VWS V14.01,2013-06-04 13:42:00,
2013-06-04 09:44:00,68.1,61.3,30.00,NNW,335,2.0,2.0,79,0.00,,---,0.00,VWS V14.01,2013-06-04 13:44:00,
2013-06-04 09:45:00,68.1,61.0,30.00,NNW,335,0.0,2.0,78,0.00,,---,0.00,VWS V14.01,2013-06-04 13:45:00,
2013-06-04 09:46:00,68.3,60.5,30.00,NNW,335,0.0,0.0,76,0.00,,---,0.00,VWS V14.01,2013-06-04 13:46:00,
2013-06-04 09:48:00,68.4,60.5,30.00,NNW,335,0.0,0.0,76,0.00,,---,0.00,VWS V14.01,2013-06-04 13:48:00,
2013-06-04 09:50:00,68.6,60.7,30.00,NNW,335,0.0,0.0,76,0.00,,---,0.00,VWS V14.01,2013-06-04 13:50:00,
2013-06-04 09:52:00,68.9,61.0,30.00,NNW,335,0.0,0.0,76,0.00,,---,0.00,VWS V14.01,2013-06-04 13:52:00,
2013-06-04 09:54:00,69.1,60.8,30.00,NNW,335,0.0,0.0,75,0.00,,---,0.00,VWS V14.01,2013-06-04 13:54:00,
2013-06-04 09:56:00,69.3,61.4,30.00,NNW,335,0.0,0.0,76,0.00,,---,0.00,VWS V14.01,2013-06-04 13:56:00,
2013-06-04 09:58:00,69.4,61.5,30.00,NNW,335,0.0,0.0,76,0.00,,---,0.00,VWS V14.01,2013-06-04 13:58:00,
2013-06-04 10:00:00,69.6,61.3,30.00,NNW,335,0.0,0.0,75,0.00,,---,0.00,VWS V14.01,2013-06-04 14:00:00,
2013-06-04 10:02:00,69.8,61.5,30.00,NNW,335,0.0,0.0,75,0.00,,---,0.00,VWS V14.01,2013-06-04 14:02:00,
2013-06-04 10:04:00,69.9,61.2,30.00,NNW,335,0.0,0.0,74,0.00,,---,0.00,VWS V14.01,2013-06-04 14:04:00,
2013-06-04 10:06:00,70.3,61.6,30.00,NNW,335,0.0,0.0,74,0.00,,---,0.00,VWS V14.01,2013-06-04 14:06:00,
2013-06-04 10:08:00,70.4,62.1,30.00,NNW,335,0.0,1.0,75,0.00,,---,0.00,VWS V14.01,2013-06-04 14:08:00,
2013-06-04 10:10:00,70.6,61.9,30.00,NNW,335,0.0,1.0,74,0.00,,---,0.00,VWS V14.01,2013-06-04 14:10:00,
2013-06-04 10:12:00,70.9,62.6,30.00,NNW,335,0.0,1.0,75,0.00,,---,0.00,VWS V14.01,2013-06-04 14:12:00,
2013-06-04 10:14:00,71.1,61.6,30.00,NNW,335,0.0,1.0,72,0.00,,---,0.00,VWS V14.01,2013-06-04 14:14:00,
2013-06-04 10:15:00,71.1,61.6,30.00,NNW,335,0.0,1.0,72,0.00,,---,0.00,VWS V14.01,2013-06-04 14:15:00,
2013-06-04 10:16:00,71.3,61.8,30.00,North,1,3.0,3.0,72,0.00,,---,0.00,VWS V14.01,2013-06-04 14:16:00,
2013-06-04 10:18:00,71.5,62.0,30.00,North,1,3.0,5.0,72,0.00,,---,0.00,VWS V14.01,2013-06-04 14:18:00,
2013-06-04 10:20:00,71.5,61.6,30.00,North,4,0.0,5.0,71,0.00,,---,0.00,VWS V14.01,2013-06-04 14:20:00,
2013-06-04 10:23:00,71.5,61.6,30.00,North,4,0.0,5.0,71,0.00,,---,0.00,VWS V14.01,2013-06-04 14:23:00,
2013-06-04 10:25:00,71.5,62.0,30.00,North,4,0.0,5.0,72,0.00,,---,0.00,VWS V14.01,2013-06-04 14:25:00,
2013-06-04 10:27:00,71.5,61.6,30.00,North,4,0.0,5.0,71,0.00,,---,0.00,VWS V14.01,2013-06-04 14:27:00,
2013-06-04 10:29:00,71.5,62.0,30.00,North,4,0.0,5.0,72,0.00,,---,0.00,VWS V14.01,2013-06-04 14:29:00,
2013-06-04 10:30:00,71.5,61.6,30.00,North,4,0.0,5.0,71,0.00,,---,0.00,VWS V14.01,2013-06-04 14:30:00,
2013-06-04 10:31:00,71.5,62.0,30.00,North,4,0.0,0.0,72,0.00,,---,0.00,VWS V14.01,2013-06-04 14:31:00,
2013-06-04 10:33:00,71.6,62.1,30.00,North,4,0.0,0.0,72,0.00,,---,0.00,VWS V14.01,2013-06-04 14:33:00,
2013-06-04 10:35:00,71.8,62.7,30.00,North,4,0.0,0.0,73,0.00,,---,0.00,VWS V14.01,2013-06-04 14:35:00,
2013-06-04 10:37:00,72.0,61.7,30.00,North,3,0.0,0.0,70,0.00,,---,0.00,VWS V14.01,2013-06-04 14:37:00,
2013-06-04 10:39:00,72.0,61.7,30.00,North,1,0.0,1.0,70,0.00,,---,0.00,VWS V14.01,2013-06-04 14:39:00,
2013-06-04 10:41:00,72.1,61.8,30.00,North,1,0.0,1.0,70,0.00,,---,0.00,VWS V14.01,2013-06-04 14:41:00,
2013-06-04 10:43:00,72.3,62.4,30.00,SSE,149,0.0,1.0,71,0.00,,---,0.00,VWS V14.01,2013-06-04 14:43:00,
2013-06-04 10:45:00,72.3,62.0,30.00,SSE,149,0.0,1.0,70,0.00,,---,0.00,VWS V14.01,2013-06-04 14:45:00,
2013-06-04 10:47:00,72.5,61.3,30.00,North,11,0.0,3.0,68,0.00,,---,0.00,VWS V14.01,2013-06-04 14:47:00,
2013-06-04 10:49:00,72.8,62.5,30.00,North,11,0.0,3.0,70,0.00,,---,0.00,VWS V14.01,2013-06-04 14:49:00,
2013-06-04 10:51:00,73.0,62.2,30.00,WSW,243,0.0,3.0,69,0.00,,---,0.00,VWS V14.01,2013-06-04 14:51:00,
2013-06-04 10:53:00,73.2,62.4,30.00,WSW,243,0.0,3.0,69,0.00,,---,0.00,VWS V14.01,2013-06-04 14:53:00,
2013-06-04 10:55:00,73.5,63.9,30.00,WSW,243,0.0,3.0,72,0.00,,---,0.00,VWS V14.01,2013-06-04 14:55:00,
2013-06-04 10:57:00,73.9,63.1,30.00,SE,142,0.0,3.0,69,0.00,,---,0.00,VWS V14.01,2013-06-04 14:57:00,
2013-06-04 10:59:00,74.0,61.9,30.01,ESE,115,0.0,3.0,66,0.00,,---,0.00,VWS V14.01,2013-06-04 14:59:00,
2013-06-04 11:00:00,74.0,61.9,30.01,ESE,115,0.0,3.0,66,0.00,,---,0.00,VWS V14.01,2013-06-04 15:00:00,
2013-06-04 11:01:00,74.2,62.1,30.01,South,177,3.0,3.0,66,0.00,,---,0.00,VWS V14.01,2013-06-04 15:01:00,
2013-06-04 11:03:00,74.4,61.9,30.01,SSE,162,0.0,4.0,65,0.00,,---,0.00,VWS V14.01,2013-06-04 15:03:00,
2013-06-04 11:05:00,74.6,62.5,30.01,SSE,162,0.0,4.0,66,0.00,,---,0.00,VWS V14.01,2013-06-04 15:05:00,
2013-06-04 11:07:00,74.9,62.8,30.01,SSE,162,0.0,4.0,66,0.00,,---,0.00,VWS V14.01,2013-06-04 15:07:00,
2013-06-04 11:09:00,75.1,62.1,30.01,SSE,162,0.0,4.0,64,0.00,,---,0.00,VWS V14.01,2013-06-04 15:09:00,
2013-06-04 11:11:00,75.3,62.7,30.01,East,79,0.0,4.0,65,0.00,,---,0.00,VWS V14.01,2013-06-04 15:11:00,
2013-06-04 11:13:00,75.4,62.8,30.01,SSE,161,0.0,4.0,65,0.00,,---,0.00,VWS V14.01,2013-06-04 15:13:00,
2013-06-04 11:15:00,75.6,62.1,30.01,SSE,162,0.0,4.0,63,0.00,,---,0.00,VWS V14.01,2013-06-04 15:15:00,
2013-06-04 11:17:00,75.6,62.1,30.01,North,359,0.0,2.0,63,0.00,,---,0.00,VWS V14.01,2013-06-04 15:17:00,
2013-06-04 11:19:00,75.6,61.7,30.01,SSW,212,0.0,3.0,62,0.00,,---,0.00,VWS V14.01,2013-06-04 15:19:00,
2013-06-04 11:21:00,75.6,62.6,30.01,ENE,75,0.0,3.0,64,0.00,,---,0.00,VWS V14.01,2013-06-04 15:21:00,
2013-06-04 11:23:00,75.8,62.8,30.01,East,91,0.0,3.0,64,0.00,,---,0.00,VWS V14.01,2013-06-04 15:23:00,
2013-06-04 11:25:00,75.8,61.9,30.01,East,90,0.0,3.0,62,0.00,,---,0.00,VWS V14.01,2013-06-04 15:25:00,
2013-06-04 11:27:00,75.8,61.9,30.01,SW,230,0.0,3.0,62,0.00,,---,0.00,VWS V14.01,2013-06-04 15:27:00,
2013-06-04 11:29:00,75.8,62.3,30.01,WSW,237,0.0,3.0,63,0.00,,---,0.00,VWS V14.01,2013-06-04 15:29:00,
2013-06-04 11:30:00,75.6,61.2,30.01,WSW,237,0.0,3.0,61,0.00,,---,0.00,VWS V14.01,2013-06-04 15:30:00,
2013-06-04 11:31:00,75.6,61.7,30.01,WSW,237,0.0,0.0,62,0.00,,---,0.00,VWS V14.01,2013-06-04 15:31:00,
2013-06-04 11:33:00,75.6,62.1,30.01,SSE,162,3.0,5.0,63,0.00,,---,0.00,VWS V14.01,2013-06-04 15:33:00,
2013-06-04 11:35:00,75.6,61.7,30.01,SSE,163,0.0,5.0,62,0.00,,---,0.00,VWS V14.01,2013-06-04 15:35:00,
2013-06-04 11:37:00,75.8,61.9,30.01,South,169,2.0,5.0,62,0.00,,---,0.00,VWS V14.01,2013-06-04 15:37:00,
2013-06-04 11:39:00,75.8,61.9,30.01,SSE,160,0.0,5.0,62,0.00,,---,0.00,VWS V14.01,2013-06-04 15:39:00,
2013-06-04 11:41:00,75.8,62.8,30.01,NNW,339,0.0,5.0,64,0.00,,---,0.00,VWS V14.01,2013-06-04 15:41:00,
2013-06-04 11:43:00,75.6,63.0,30.01,NNW,339,0.0,5.0,65,0.00,,---,0.00,VWS V14.01,2013-06-04 15:43:00,
2013-06-04 11:45:00,75.6,63.0,30.01,NNW,339,0.0,5.0,65,0.00,,---,0.00,VWS V14.01,2013-06-04 15:45:00,
2013-06-04 11:47:00,75.4,62.8,30.01,NNW,339,0.0,1.0,65,0.00,,---,0.00,VWS V14.01,2013-06-04 15:47:00,
2013-06-04 11:49:00,75.3,63.2,30.01,NNW,339,0.0,1.0,66,0.00,,---,0.00,VWS V14.01,2013-06-04 15:49:00,
2013-06-04 11:51:00,75.1,63.4,30.01,SSE,164,0.0,1.0,67,0.00,,---,0.00,VWS V14.01,2013-06-04 15:51:00,
2013-06-04 11:53:00,75.3,63.2,30.01,NE,45,0.0,3.0,66,0.00,,---,0.00,VWS V14.01,2013-06-04 15:53:00,
2013-06-04 11:55:00,75.3,63.2,30.01,NE,45,0.0,3.0,66,0.00,,---,0.00,VWS V14.01,2013-06-04 15:55:00,
2013-06-04 11:58:00,75.4,62.4,30.01,NNE,21,0.0,3.0,64,0.00,,---,0.00,VWS V14.01,2013-06-04 15:58:00,
2013-06-04 12:00:00,75.4,61.9,30.01,North,8,0.0,3.0,63,0.00,,---,0.00,VWS V14.01,2013-06-04 16:00:00,
2013-06-04 12:02:00,75.4,62.4,30.01,NNE,32,0.0,0.0,64,0.00,,---,0.00,VWS V14.01,2013-06-04 16:02:00,
2013-06-04 12:04:00,75.4,62.4,30.01,NNE,21,0.0,0.0,64,0.00,,---,0.00,VWS V14.01,2013-06-04 16:04:00,
2013-06-04 12:06:00,75.4,62.4,30.01,NNE,21,0.0,0.0,64,0.00,,---,0.00,VWS V14.01,2013-06-04 16:06:00,
2013-06-04 12:08:00,75.4,61.5,30.01,NNE,21,0.0,0.0,62,0.00,,---,0.00,VWS V14.01,2013-06-04 16:08:00,
2013-06-04 12:10:00,75.4,62.8,30.01,SE,146,0.0,3.0,65,0.00,,---,0.00,VWS V14.01,2013-06-04 16:10:00,
2013-06-04 12:12:00,75.6,62.6,30.01,SE,145,0.0,3.0,64,0.00,,---,0.00,VWS V14.01,2013-06-04 16:12:00,
2013-06-04 12:14:00,75.6,62.6,30.01,SE,144,0.0,3.0,64,0.00,,---,0.00,VWS V14.01,2013-06-04 16:14:00,
2013-06-04 12:15:00,75.6,62.6,30.01,SE,144,0.0,3.0,64,0.00,,---,0.00,VWS V14.01,2013-06-04 16:15:00,
2013-06-04 12:16:00,75.6,62.6,30.01,East,93,0.0,2.0,64,0.00,,---,0.00,VWS V14.01,2013-06-04 16:16:00,
2013-06-04 12:18:00,75.8,62.8,30.01,ESE,112,0.0,2.0,64,0.00,,---,0.00,VWS V14.01,2013-06-04 16:18:00,
2013-06-04 12:20:00,75.8,62.8,30.01,SSE,165,0.0,2.0,64,0.00,,---,0.00,VWS V14.01,2013-06-04 16:20:00,
2013-06-04 12:22:00,76.1,62.6,30.01,South,170,2.0,6.0,63,0.00,,---,0.00,VWS V14.01,2013-06-04 16:22:00,
2013-06-04 12:24:00,76.5,62.1,30.01,SSE,164,5.0,6.0,61,0.00,,---,0.00,VWS V14.01,2013-06-04 16:24:00,
2013-06-04 12:26:00,76.5,61.1,30.01,SSE,167,3.0,6.0,59,0.00,,---,0.00,VWS V14.01,2013-06-04 16:26:00,
2013-06-04 12:28:00,76.8,60.9,30.01,SSE,168,0.0,6.0,58,0.00,,---,0.00,VWS V14.01,2013-06-04 16:28:00,
2013-06-04 12:30:00,76.8,61.4,30.01,SSE,167,0.0,6.0,59,0.00,,---,0.00,VWS V14.01,2013-06-04 16:30:00,
2013-06-04 12:32:00,77.2,61.8,30.01,South,176,4.0,4.0,59,0.00,,---,0.00,VWS V14.01,2013-06-04 16:32:00,
2013-06-04 12:34:00,77.4,61.0,30.01,South,170,0.0,4.0,57,0.00,,---,0.00,VWS V14.01,2013-06-04 16:34:00,
2013-06-04 12:36:00,77.4,61.0,30.01,SSE,165,3.0,5.0,57,0.00,,---,0.00,VWS V14.01,2013-06-04 16:36:00,
2013-06-04 12:38:00,77.4,61.5,30.01,SSE,160,0.0,5.0,58,0.00,,---,0.00,VWS V14.01,2013-06-04 16:38:00,
2013-06-04 12:40:00,77.4,61.5,30.01,SE,131,0.0,5.0,58,0.00,,---,0.00,VWS V14.01,2013-06-04 16:40:00,
2013-06-04 12:42:00,77.4,61.5,30.01,SSE,155,2.0,5.0,58,0.00,,---,0.00,VWS V14.01,2013-06-04 16:42:00,
2013-06-04 12:44:00,77.4,62.4,30.01,SSE,155,0.0,5.0,60,0.00,,---,0.00,VWS V14.01,2013-06-04 16:44:00,
2013-06-04 12:45:00,77.2,62.2,30.01,SSE,149,2.0,5.0,60,0.00,,---,0.00,VWS V14.01,2013-06-04 16:45:00,
2013-06-04 12:46:00,77.2,60.8,30.01,SSE,149,0.0,2.0,57,0.00,,---,0.00,VWS V14.01,2013-06-04 16:46:00,
2013-06-04 12:48:00,77.2,61.3,30.01,SSE,158,0.0,2.0,58,0.00,,---,0.00,VWS V14.01,2013-06-04 16:48:00,
2013-06-04 12:50:00,77.0,61.6,30.01,SSE,158,1.0,2.0,59,0.00,,---,0.00,VWS V14.01,2013-06-04 16:50:00,
2013-06-04 12:52:00,77.0,61.6,30.01,SSE,159,0.0,3.0,59,0.00,,---,0.00,VWS V14.01,2013-06-04 16:52:00,
2013-06-04 12:54:00,76.8,61.9,30.01,SSE,159,0.0,3.0,60,0.00,,---,0.00,VWS V14.01,2013-06-04 16:54:00,
2013-06-04 12:56:00,76.7,61.3,30.01,SSE,159,0.0,3.0,59,0.00,,---,0.00,VWS V14.01,2013-06-04 16:56:00,
2013-06-04 12:58:00,76.7,61.8,30.01,SSE,159,0.0,3.0,60,0.00,,---,0.00,VWS V14.01,2013-06-04 16:58:00,
2013-06-04 13:00:00,76.5,61.6,30.01,SSE,159,0.0,3.0,60,0.00,,---,0.00,VWS V14.01,2013-06-04 17:00:00,
2013-06-04 13:02:00,76.3,62.3,30.01,SSE,159,0.0,0.0,62,0.00,,---,0.00,VWS V14.01,2013-06-04 17:02:00,
2013-06-04 13:04:00,76.3,61.9,30.01,SSE,159,0.0,0.0,61,0.00,,---,0.00,VWS V14.01,2013-06-04 17:04:00,
2013-06-04 13:06:00,76.1,61.2,30.01,SSE,158,0.0,2.0,60,0.00,,---,0.00,VWS V14.01,2013-06-04 17:06:00,
2013-06-04 13:08:00,76.1,61.7,30.01,SSE,153,0.0,2.0,61,0.00,,---,0.00,VWS V14.01,2013-06-04 17:08:00,
2013-06-04 13:10:00,76.1,62.2,30.01,SSE,153,0.0,2.0,62,0.00,,---,0.00,VWS V14.01,2013-06-04 17:10:00,
2013-06-04 13:12:00,76.1,62.2,30.01,SSE,153,0.0,2.0,62,0.00,,---,0.00,VWS V14.01,2013-06-04 17:12:00,
2013-06-04 13:14:00,76.3,63.2,30.00,SSE,153,0.0,2.0,64,0.00,,---,0.00,VWS V14.01,2013-06-04 17:14:00,
2013-06-04 13:15:00,76.3,63.2,30.00,SSE,153,0.0,2.0,64,0.00,,---,0.00,VWS V14.01,2013-06-04 17:15:00,
2013-06-04 13:16:00,76.3,63.7,30.00,SSE,153,0.0,0.0,65,0.00,,---,0.00,VWS V14.01,2013-06-04 17:16:00,
2013-06-04 13:18:00,76.5,63.9,30.00,SSE,153,0.0,0.0,65,0.00,,---,0.00,VWS V14.01,2013-06-04 17:18:00,
2013-06-04 13:20:00,76.7,63.6,30.00,NNE,19,0.0,3.0,64,0.00,,---,0.00,VWS V14.01,2013-06-04 17:20:00,
2013-06-04 13:22:00,76.8,63.3,30.00,East,101,1.0,3.0,63,0.00,,---,0.00,VWS V14.01,2013-06-04 17:22:00,
2013-06-04 13:24:00,77.0,63.0,30.00,SSE,164,2.0,4.0,62,0.00,,---,0.00,VWS V14.01,2013-06-04 17:24:00,
2013-06-04 13:26:00,77.2,62.2,30.00,SSE,150,4.0,5.0,60,0.00,,---,0.00,VWS V14.01,2013-06-04 17:26:00,
2013-06-04 13:28:00,77.2,62.2,30.00,SSE,166,0.0,5.0,60,0.00,,---,0.00,VWS V14.01,2013-06-04 17:28:00,
2013-06-04 13:30:00,77.4,63.4,30.01,SSE,166,0.0,5.0,62,0.00,,---,0.00,VWS V14.01,2013-06-04 17:30:00,
2013-06-04 13:32:00,77.4,62.9,30.01,South,176,2.0,3.0,61,0.00,,---,0.00,VWS V14.01,2013-06-04 17:32:00,
2013-06-04 13:34:00,77.4,62.0,30.01,SSE,158,0.0,3.0,59,0.00,,---,0.00,VWS V14.01,2013-06-04 17:34:00,
2013-06-04 13:36:00,77.4,62.0,30.01,SSE,165,1.0,4.0,59,0.00,,---,0.00,VWS V14.01,2013-06-04 17:36:00,
2013-06-04 13:38:00,77.4,62.9,30.01,SE,124,0.0,4.0,61,0.00,,---,0.00,VWS V14.01,2013-06-04 17:38:00,
2013-06-04 13:40:00,77.2,62.2,30.01,SSE,153,0.0,4.0,60,0.00,,---,0.00,VWS V14.01,2013-06-04 17:40:00,
2013-06-04 13:42:00,77.2,61.8,30.01,SSE,161,0.0,4.0,59,0.00,,---,0.00,VWS V14.01,2013-06-04 17:42:00,
2013-06-04 13:44:00,77.2,62.2,30.01,SSE,161,0.0,4.0,60,0.00,,---,0.00,VWS V14.01,2013-06-04 17:44:00,
2013-06-04 13:45:00,77.2,62.7,30.01,SSE,161,0.0,4.0,61,0.00,,---,0.00,VWS V14.01,2013-06-04 17:45:00,
2013-06-04 13:46:00,77.0,62.5,30.01,SSE,161,0.0,0.0,61,0.00,,---,0.00,VWS V14.01,2013-06-04 17:46:00,
2013-06-04 13:48:00,77.0,63.5,30.01,SSE,161,0.0,0.0,63,0.00,,---,0.00,VWS V14.01,2013-06-04 17:48:00,
2013-06-04 13:50:00,77.0,63.9,30.01,NNE,33,0.0,0.0,64,0.00,,---,0.00,VWS V14.01,2013-06-04 17:50:00,
2013-06-04 13:52:00,76.8,62.3,30.01,NNE,33,0.0,0.0,61,0.00,,---,0.00,VWS V14.01,2013-06-04 17:52:00,
2013-06-04 13:54:00,76.7,62.7,30.01,NNE,33,0.0,0.0,62,0.00,,---,0.00,VWS V14.01,2013-06-04 17:54:00,
2013-06-04 13:56:00,76.5,63.0,30.01,NNE,33,0.0,0.0,63,0.00,,---,0.00,VWS V14.01,2013-06-04 17:56:00,
2013-06-04 13:58:00,76.3,62.3,30.01,NNE,33,0.0,0.0,62,0.00,,---,0.00,VWS V14.01,2013-06-04 17:58:00,
2013-06-04 14:00:00,76.3,62.8,30.01,NNE,33,0.0,0.0,63,0.00,,---,0.00,VWS V14.01,2013-06-04 18:00:00,
2013-06-04 14:02:00,76.0,63.4,30.01,SSE,166,1.0,1.0,65,0.00,,---,0.00,VWS V14.01,2013-06-04 18:02:00,
2013-06-04 14:04:00,76.0,62.5,30.01,SSE,166,0.0,2.0,63,0.00,,---,0.00,VWS V14.01,2013-06-04 18:04:00,
2013-06-04 14:06:00,75.8,63.2,30.01,SSE,167,0.0,2.0,65,0.00,,---,0.00,VWS V14.01,2013-06-04 18:06:00,
2013-06-04 14:08:00,75.6,63.0,30.01,SSE,167,0.0,2.0,65,0.00,,---,0.00,VWS V14.01,2013-06-04 18:08:00,
2013-06-04 14:10:00,75.4,62.8,30.01,ESE,118,0.0,2.0,65,0.00,,---,0.00,VWS V14.01,2013-06-04 18:10:00,
2013-06-04 14:12:00,75.4,62.8,30.01,ESE,118,0.0,2.0,65,0.00,,---,0.00,VWS V14.01,2013-06-04 18:12:00,
2013-06-04 14:14:00,75.3,63.2,30.01,East,79,0.0,3.0,66,0.00,,---,0.00,VWS V14.01,2013-06-04 18:14:00,
2013-06-04 14:15:00,75.3,63.2,30.01,East,79,0.0,3.0,66,0.00,,---,0.00,VWS V14.01,2013-06-04 18:15:00,
2013-06-04 14:16:00,75.3,63.2,30.01,East,84,0.0,0.0,66,0.00,,---,0.00,VWS V14.01,2013-06-04 18:16:00,
2013-06-04 14:19:00,75.1,63.0,30.01,East,84,0.0,0.0,66,0.00,,---,0.00,VWS V14.01,2013-06-04 18:19:00,
2013-06-04 14:21:00,75.1,63.4,30.01,East,83,0.0,0.0,67,0.00,,---,0.00,VWS V14.01,2013-06-04 18:21:00,
2013-06-04 14:23:00,75.1,63.0,30.01,SSE,150,0.0,1.0,66,0.00,,---,0.00,VWS V14.01,2013-06-04 18:23:00,
2013-06-04 14:25:00,74.9,62.8,30.01,SSE,150,0.0,1.0,66,0.00,,---,0.00,VWS V14.01,2013-06-04 18:25:00,
2013-06-04 14:27:00,74.9,63.6,30.01,SSE,150,0.0,1.0,68,0.00,,---,0.00,VWS V14.01,2013-06-04 18:27:00,
2013-06-04 14:28:00,74.9,63.2,30.01,SSE,150,0.0,1.0,67,0.00,,---,0.00,VWS V14.01,2013-06-04 18:28:00,
2013-06-04 14:30:00,74.9,63.6,30.01,SSE,150,0.0,1.0,68,0.00,,---,0.00,VWS V14.01,2013-06-04 18:30:00,
2013-06-04 14:31:00,74.9,62.8,30.01,SSE,150,0.0,0.0,66,0.00,,---,0.00,VWS V14.01,2013-06-04 18:31:00,
2013-06-04 14:33:00,74.9,62.8,30.01,SSE,150,0.0,0.0,66,0.00,,---,0.00,VWS V14.01,2013-06-04 18:33:00,
2013-06-04 14:35:00,74.9,62.8,30.01,SSE,150,0.0,0.0,66,0.00,,---,0.00,VWS V14.01,2013-06-04 18:35:00,
2013-06-04 14:37:00,75.1,63.4,30.01,SSE,150,0.0,0.0,67,0.00,,---,0.00,VWS V14.01,2013-06-04 18:37:00,
2013-06-04 14:39:00,75.1,63.8,30.01,SSE,150,0.0,0.0,68,0.00,,---,0.00,VWS V14.01,2013-06-04 18:39:00,
2013-06-04 14:41:00,75.1,63.4,30.01,South,172,0.0,3.0,67,0.00,,---,0.00,VWS V14.01,2013-06-04 18:41:00,
2013-06-04 14:43:00,75.1,63.0,30.01,South,172,0.0,3.0,66,0.00,,---,0.00,VWS V14.01,2013-06-04 18:43:00,
2013-06-04 14:45:00,75.1,63.0,30.01,South,172,0.0,3.0,66,0.00,,---,0.00,VWS V14.01,2013-06-04 18:45:00,
2013-06-04 14:47:00,75.3,63.6,30.01,South,172,0.0,0.0,67,0.00,,---,0.00,VWS V14.01,2013-06-04 18:47:00,
2013-06-04 14:49:00,75.3,63.2,30.01,SSE,161,1.0,3.0,66,0.00,,---,0.00,VWS V14.01,2013-06-04 18:49:00,
2013-06-04 14:51:00,75.3,63.2,30.01,SSE,158,0.0,3.0,66,0.00,,---,0.00,VWS V14.01,2013-06-04 18:51:00,
2013-06-04 14:53:00,74.9,63.6,30.01,SSE,158,0.0,3.0,68,0.00,,---,0.00,VWS V14.01,2013-06-04 18:53:00,
2013-06-04 14:55:00,74.7,63.5,30.01,SSE,158,0.0,3.0,68,0.00,,---,0.00,VWS V14.01,2013-06-04 18:55:00,
2013-06-04 14:57:00,74.6,63.8,30.01,SSE,158,0.0,3.0,69,0.00,,---,0.00,VWS V14.01,2013-06-04 18:57:00,
2013-06-04 14:59:00,74.4,63.6,30.01,SSE,158,0.0,3.0,69,0.00,,---,0.00,VWS V14.01,2013-06-04 18:59:00,
2013-06-04 15:00:00,74.4,63.6,30.00,SSE,158,0.0,3.0,69,0.00,,---,0.00,VWS V14.01,2013-06-04 19:00:00,
2013-06-04 15:01:00,74.6,63.8,30.00,SSE,158,0.0,0.0,69,0.00,,---,0.00,VWS V14.01,2013-06-04 19:01:00,
2013-06-04 15:03:00,74.6,63.8,30.00,SSE,158,0.0,0.0,69,0.00,,---,0.00,VWS V14.01,2013-06-04 19:03:00,
2013-06-04 15:05:00,74.7,63.9,30.00,SSE,158,0.0,1.0,69,0.00,,---,0.00,VWS V14.01,2013-06-04 19:05:00,
2013-06-04 15:07:00,74.9,64.1,30.00,SSE,154,0.0,1.0,69,0.00,,---,0.00,VWS V14.01,2013-06-04 19:07:00,
2013-06-04 15:09:00,75.1,63.4,30.00,SSE,157,0.0,3.0,67,0.00,,---,0.00,VWS V14.01,2013-06-04 19:09:00,
2013-06-04 15:11:00,75.1,63.8,30.00,SSE,157,0.0,3.0,68,0.00,,---,0.00,VWS V14.01,2013-06-04 19:11:00,
2013-06-04 15:13:00,75.1,63.0,30.00,SSE,157,0.0,3.0,66,0.00,,---,0.00,VWS V14.01,2013-06-04 19:13:00,
2013-06-04 15:15:00,75.3,63.6,30.00,SSE,157,0.0,3.0,67,0.00,,---,0.00,VWS V14.01,2013-06-04 19:15:00,
2013-06-04 15:17:00,75.6,63.9,30.00,South,171,3.0,3.0,67,0.00,,---,0.00,VWS V14.01,2013-06-04 19:17:00,
2013-06-04 15:19:00,76.0,63.0,30.00,SSE,160,1.0,4.0,64,0.00,,---,0.00,VWS V14.01,2013-06-04 19:19:00,
2013-06-04 15:21:00,76.1,63.0,30.00,SSE,147,0.0,4.0,64,0.00,,---,0.00,VWS V14.01,2013-06-04 19:21:00,
2013-06-04 15:23:00,76.5,63.0,30.00,SSE,147,0.0,4.0,63,0.00,,---,0.00,VWS V14.01,2013-06-04 19:23:00,
2013-06-04 15:25:00,77.0,64.3,30.00,SSE,147,0.0,4.0,65,0.00,,---,0.00,VWS V14.01,2013-06-04 19:25:00,
2013-06-04 15:27:00,77.4,65.6,30.00,SSE,162,2.0,4.0,67,0.00,,---,0.00,VWS V14.01,2013-06-04 19:27:00,
2013-06-04 15:29:00,77.6,62.6,30.00,South,172,0.0,4.0,60,0.00,,---,0.00,VWS V14.01,2013-06-04 19:29:00,
2013-06-04 15:30:00,77.7,63.7,30.00,SSE,150,0.0,4.0,62,0.00,,---,0.00,VWS V14.01,2013-06-04 19:30:00,
2013-06-04 15:31:00,77.9,64.3,30.00,WSW,257,0.0,0.0,63,0.00,,---,0.00,VWS V14.01,2013-06-04 19:31:00,
2013-06-04 15:33:00,78.1,63.6,30.00,NE,40,0.0,2.0,61,0.00,,---,0.00,VWS V14.01,2013-06-04 19:33:00,
2013-06-04 15:35:00,78.3,62.8,30.00,SSE,162,0.0,2.0,59,0.00,,---,0.00,VWS V14.01,2013-06-04 19:35:00,
2013-06-04 15:37:00,78.5,63.0,30.00,SSE,150,0.0,2.0,59,0.00,,---,0.00,VWS V14.01,2013-06-04 19:37:00,
2013-06-04 15:39:00,78.6,64.0,30.00,SSE,150,0.0,2.0,61,0.00,,---,0.00,VWS V14.01,2013-06-04 19:39:00,
2013-06-04 15:41:00,78.8,63.3,30.00,SSE,150,0.0,2.0,59,0.00,,---,0.00,VWS V14.01,2013-06-04 19:41:00,
2013-06-04 15:43:00,78.8,63.3,30.00,SSE,156,0.0,2.0,59,0.00,,---,0.00,VWS V14.01,2013-06-04 19:43:00,
2013-06-04 15:45:00,79.2,63.7,30.00,SSE,156,0.0,2.0,59,0.00,,---,0.00,VWS V14.01,2013-06-04 19:45:00,
2013-06-04 15:47:00,79.4,63.3,30.00,South,184,0.0,1.0,58,0.00,,---,0.00,VWS V14.01,2013-06-04 19:47:00,
2013-06-04 15:49:00,79.6,63.0,30.00,ENE,65,1.0,5.0,57,0.00,,---,0.00,VWS V14.01,2013-06-04 19:49:00,
2013-06-04 15:51:00,79.8,63.2,30.00,ENE,70,0.0,5.0,57,0.00,,---,0.00,VWS V14.01,2013-06-04 19:51:00,
2013-06-04 15:53:00,79.8,62.7,30.00,ESE,108,2.0,5.0,56,0.00,,---,0.00,VWS V14.01,2013-06-04 19:53:00,
2013-06-04 15:55:00,79.9,63.3,30.00,South,181,0.0,5.0,57,0.00,,---,0.00,VWS V14.01,2013-06-04 19:55:00,
2013-06-04 15:57:00,80.1,64.0,30.00,South,180,0.0,5.0,58,0.00,,---,0.00,VWS V14.01,2013-06-04 19:57:00,
2013-06-04 15:59:00,80.3,64.2,30.00,South,180,0.0,5.0,58,0.00,,---,0.00,VWS V14.01,2013-06-04 19:59:00,
2013-06-04 16:00:00,80.3,64.2,30.00,South,180,0.0,5.0,58,0.00,,---,0.00,VWS V14.01,2013-06-04 20:00:00,
2013-06-04 16:01:00,80.3,63.7,30.00,South,180,0.0,0.0,57,0.00,,---,0.00,VWS V14.01,2013-06-04 20:01:00,
2013-06-04 16:03:00,80.1,63.0,30.00,South,180,0.0,0.0,56,0.00,,---,0.00,VWS V14.01,2013-06-04 20:03:00,
2013-06-04 16:05:00,80.1,64.0,30.00,South,180,0.0,0.0,58,0.00,,---,0.00,VWS V14.01,2013-06-04 20:05:00,
2013-06-04 16:07:00,79.9,63.8,30.00,South,180,0.0,0.0,58,0.00,,---,0.00,VWS V14.01,2013-06-04 20:07:00,
2013-06-04 16:09:00,79.9,62.8,30.00,South,180,0.0,0.0,56,0.00,,---,0.00,VWS V14.01,2013-06-04 20:09:00,
2013-06-04 16:12:00,79.8,63.2,30.00,South,180,0.0,0.0,57,0.00,,---,0.00,VWS V14.01,2013-06-04 20:12:00,
2013-06-04 16:14:00,79.6,63.5,30.00,South,180,0.0,0.0,58,0.00,,---,0.00,VWS V14.01,2013-06-04 20:14:00,
2013-06-04 16:15:00,79.6,63.5,30.00,South,180,0.0,0.0,58,0.00,,---,0.00,VWS V14.01,2013-06-04 20:15:00,
2013-06-04 16:16:00,79.6,63.0,30.00,SSE,155,0.0,0.0,57,0.00,,---,0.00,VWS V14.01,2013-06-04 20:16:00,
2013-06-04 16:18:00,79.4,63.3,30.00,SSE,155,0.0,0.0,58,0.00,,---,0.00,VWS V14.01,2013-06-04 20:18:00,
2013-06-04 16:20:00,79.4,63.3,30.00,SSE,155,0.0,0.0,58,0.00,,---,0.00,VWS V14.01,2013-06-04 20:20:00,
2013-06-04 16:22:00,79.6,64.0,30.00,SSE,154,0.0,0.0,59,0.00,,---,0.00,VWS V14.01,2013-06-04 20:22:00,
2013-06-04 16:24:00,79.6,61.5,30.00,SSE,163,0.0,4.0,54,0.00,,---,0.00,VWS V14.01,2013-06-04 20:24:00,
2013-06-04 16:26:00,79.6,62.5,30.00,SSE,148,0.0,4.0,56,0.00,,---,0.00,VWS V14.01,2013-06-04 20:26:00,
2013-06-04 16:28:00,79.8,63.2,30.00,SSE,162,0.0,4.0,57,0.00,,---,0.00,VWS V14.01,2013-06-04 20:28:00,
2013-06-04 16:30:00,79.2,62.7,29.99,SSE,153,0.0,4.0,57,0.00,,---,0.00,VWS V14.01,2013-06-04 20:30:00,
2013-06-04 16:32:00,79.2,61.7,29.99,SSE,163,0.0,3.0,55,0.00,,---,0.00,VWS V14.01,2013-06-04 20:32:00,
2013-06-04 16:34:00,79.2,61.7,29.99,SSE,159,0.0,3.0,55,0.00,,---,0.00,VWS V14.01,2013-06-04 20:34:00,
2013-06-04 16:36:00,79.4,61.8,29.99,South,186,0.0,3.0,55,0.00,,---,0.00,VWS V14.01,2013-06-04 20:36:00,
2013-06-04 16:38:00,79.6,61.5,29.99,SSE,160,0.0,4.0,54,0.00,,---,0.00,VWS V14.01,2013-06-04 20:38:00,
2013-06-04 16:40:00,79.8,62.7,29.99,SSE,159,0.0,4.0,56,0.00,,---,0.00,VWS V14.01,2013-06-04 20:40:00,
2013-06-04 16:42:00,79.8,62.2,29.99,SSE,155,0.0,4.0,55,0.00,,---,0.00,VWS V14.01,2013-06-04 20:42:00,
2013-06-04 16:44:00,79.9,62.8,29.99,East,101,0.0,4.0,56,0.00,,---,0.00,VWS V14.01,2013-06-04 20:44:00,
2013-06-04 16:45:00,79.9,62.8,29.99,East,101,0.0,4.0,56,0.00,,---,0.00,VWS V14.01,2013-06-04 20:45:00,
2013-06-04 16:46:00,79.8,62.2,29.99,SSE,155,0.0,0.0,55,0.00,,---,0.00,VWS V14.01,2013-06-04 20:46:00,
2013-06-04 16:48:00,79.6,62.5,29.99,North,1,0.0,0.0,56,0.00,,---,0.00,VWS V14.01,2013-06-04 20:48:00,
2013-06-04 16:50:00,79.2,63.2,29.99,North,1,0.0,0.0,58,0.00,,---,0.00,VWS V14.01,2013-06-04 20:50:00,
2013-06-04 16:52:00,79.2,63.2,29.99,North,1,0.0,0.0,58,0.00,,---,0.00,VWS V14.01,2013-06-04 20:52:00,
2013-06-04 16:54:00,79.0,63.0,29.99,North,1,0.0,0.0,58,0.00,,---,0.00,VWS V14.01,2013-06-04 20:54:00,
2013-06-04 16:56:00,79.0,63.5,29.99,North,1,0.0,0.0,59,0.00,,---,0.00,VWS V14.01,2013-06-04 20:56:00,
2013-06-04 16:58:00,79.0,62.5,29.99,North,1,0.0,0.0,57,0.00,,---,0.00,VWS V14.01,2013-06-04 20:58:00,
2013-06-04 17:00:00,79.0,63.9,29.98,North,1,0.0,0.0,60,0.00,,---,0.00,VWS V14.01,2013-06-04 21:00:00,
2013-06-04 17:02:00,79.0,63.0,29.98,North,1,0.0,0.0,58,0.00,,---,0.00,VWS V14.01,2013-06-04 21:02:00,
2013-06-04 17:04:00,79.0,63.0,29.98,North,1,0.0,0.0,58,0.00,,---,0.00,VWS V14.01,2013-06-04 21:04:00,
2013-06-04 17:06:00,78.8,62.8,29.98,SSE,165,0.0,4.0,58,0.00,,---,0.00,VWS V14.01,2013-06-04 21:06:00,
2013-06-04 17:08:00,78.8,62.3,29.98,SSE,164,0.0,4.0,57,0.00,,---,0.00,VWS V14.01,2013-06-04 21:08:00,
2013-06-04 17:10:00,78.6,62.1,29.98,SSE,162,0.0,4.0,57,0.00,,---,0.00,VWS V14.01,2013-06-04 21:10:00,
2013-06-04 17:12:00,78.6,63.1,29.98,SSE,153,0.0,4.0,59,0.00,,---,0.00,VWS V14.01,2013-06-04 21:12:00,
2013-06-04 17:14:00,78.5,62.5,29.99,SSE,153,0.0,4.0,58,0.00,,---,0.00,VWS V14.01,2013-06-04 21:14:00,
2013-06-04 17:15:00,78.5,63.0,29.99,SSE,153,0.0,4.0,59,0.00,,---,0.00,VWS V14.01,2013-06-04 21:15:00,
2013-06-04 17:16:00,78.5,62.5,29.99,SSE,153,0.0,0.0,58,0.00,,---,0.00,VWS V14.01,2013-06-04 21:16:00,
2013-06-04 17:18:00,78.5,62.5,29.99,SSE,153,0.0,1.0,58,0.00,,---,0.00,VWS V14.01,2013-06-04 21:18:00,
2013-06-04 17:20:00,78.3,63.3,29.99,SSE,153,1.0,1.0,60,0.00,,---,0.00,VWS V14.01,2013-06-04 21:20:00,
2013-06-04 17:22:00,78.3,62.8,29.99,SSE,165,0.0,2.0,59,0.00,,---,0.00,VWS V14.01,2013-06-04 21:22:00,
2013-06-04 17:24:00,78.3,62.8,29.99,South,188,0.0,2.0,59,0.00,,---,0.00,VWS V14.01,2013-06-04 21:24:00,
2013-06-04 17:26:00,78.3,62.8,29.99,South,176,0.0,2.0,59,0.00,,---,0.00,VWS V14.01,2013-06-04 21:26:00,
2013-06-04 17:28:00,78.1,62.6,29.99,South,176,0.0,2.0,59,0.00,,---,0.00,VWS V14.01,2013-06-04 21:28:00,
2013-06-04 17:30:00,78.1,63.1,29.99,South,176,0.0,2.0,60,0.00,,---,0.00,VWS V14.01,2013-06-04 21:30:00,
2013-06-04 17:32:00,78.1,63.1,29.99,South,176,0.0,0.0,60,0.00,,---,0.00,VWS V14.01,2013-06-04 21:32:00,
2013-06-04 17:34:00,78.1,62.6,29.99,South,176,0.0,0.0,59,0.00,,---,0.00,VWS V14.01,2013-06-04 21:34:00,
2013-06-04 17:36:00,77.9,62.4,29.99,SSE,165,3.0,3.0,59,0.00,,---,0.00,VWS V14.01,2013-06-04 21:36:00,
2013-06-04 17:38:00,77.9,62.9,29.99,SSE,161,0.0,4.0,60,0.00,,---,0.00,VWS V14.01,2013-06-04 21:38:00,
2013-06-04 17:40:00,77.7,62.2,29.99,SSE,161,0.0,4.0,59,0.00,,---,0.00,VWS V14.01,2013-06-04 21:40:00,
2013-06-04 17:42:00,77.7,62.7,29.99,SSE,158,0.0,4.0,60,0.00,,---,0.00,VWS V14.01,2013-06-04 21:42:00,
2013-06-04 17:44:00,77.7,62.7,29.98,SSE,158,0.0,4.0,60,0.00,,---,0.00,VWS V14.01,2013-06-04 21:44:00,
2013-06-04 17:45:00,77.7,63.2,29.98,SSE,158,0.0,4.0,61,0.00,,---,0.00,VWS V14.01,2013-06-04 21:45:00,
2013-06-04 17:46:00,77.7,62.7,29.98,SSE,158,0.0,2.0,60,0.00,,---,0.00,VWS V14.01,2013-06-04 21:46:00,
2013-06-04 17:48:00,77.6,62.2,29.98,South,188,0.0,2.0,59,0.00,,---,0.00,VWS V14.01,2013-06-04 21:48:00,
2013-06-04 17:50:00,77.6,62.2,29.98,SSE,148,0.0,3.0,59,0.00,,---,0.00,VWS V14.01,2013-06-04 21:50:00,
2013-06-04 17:52:00,77.6,62.6,29.98,SSE,164,2.0,3.0,60,0.00,,---,0.00,VWS V14.01,2013-06-04 21:52:00,
2013-06-04 17:54:00,77.4,62.4,29.98,SSE,164,0.0,3.0,60,0.00,,---,0.00,VWS V14.01,2013-06-04 21:54:00,
2013-06-04 17:56:00,77.4,61.5,29.98,SSE,163,3.0,3.0,58,0.00,,---,0.00,VWS V14.01,2013-06-04 21:56:00,
2013-06-04 17:58:00,77.4,62.0,29.98,SSE,165,2.0,4.0,59,0.00,,---,0.00,VWS V14.01,2013-06-04 21:58:00,
2013-06-04 18:00:00,77.2,61.8,29.98,SSE,166,0.0,4.0,59,0.00,,---,0.00,VWS V14.01,2013-06-04 22:00:00,
2013-06-04 18:02:00,77.2,61.8,29.98,ESE,106,0.0,1.0,59,0.00,,---,0.00,VWS V14.01,2013-06-04 22:02:00,
2013-06-04 18:04:00,77.2,61.8,29.98,SSE,160,2.0,4.0,59,0.00,,---,0.00,VWS V14.01,2013-06-04 22:04:00,
2013-06-04 18:06:00,77.2,62.2,29.98,South,171,0.0,4.0,60,0.00,,---,0.00,VWS V14.01,2013-06-04 22:06:00,
2013-06-04 18:08:00,77.2,62.2,29.98,South,171,0.0,4.0,60,0.00,,---,0.00,VWS V14.01,2013-06-04 22:08:00,
2013-06-04 18:10:00,77.2,62.7,29.98,SSE,163,0.0,4.0,61,0.00,,---,0.00,VWS V14.01,2013-06-04 22:10:00,
2013-06-04 18:12:00,77.2,62.7,29.98,SSE,164,0.0,4.0,61,0.00,,---,0.00,VWS V14.01,2013-06-04 22:12:00,
2013-06-04 18:14:00,77.2,62.2,29.98,SSE,163,0.0,4.0,60,0.00,,---,0.00,VWS V14.01,2013-06-04 22:14:00,
2013-06-04 18:15:00,77.2,62.2,29.98,SSE,153,0.0,4.0,60,0.00,,---,0.00,VWS V14.01,2013-06-04 22:15:00,
2013-06-04 18:16:00,77.0,62.1,29.98,SSE,157,2.0,3.0,60,0.00,,---,0.00,VWS V14.01,2013-06-04 22:16:00,
2013-06-04 18:18:00,77.0,62.1,29.98,SSE,150,0.0,4.0,60,0.00,,---,0.00,VWS V14.01,2013-06-04 22:18:00,
2013-06-04 18:20:00,77.0,62.1,29.98,SSE,150,0.0,4.0,60,0.00,,---,0.00,VWS V14.01,2013-06-04 22:20:00,
2013-06-04 18:22:00,76.8,61.9,29.98,SSE,160,0.0,4.0,60,0.00,,---,0.00,VWS V14.01,2013-06-04 22:22:00,
2013-06-04 18:24:00,76.7,61.8,29.98,SSE,160,0.0,4.0,60,0.00,,---,0.00,VWS V14.01,2013-06-04 22:24:00,
2013-06-04 18:26:00,76.5,62.5,29.98,SSE,160,0.0,4.0,62,0.00,,---,0.00,VWS V14.01,2013-06-04 22:26:00,
2013-06-04 18:28:00,76.5,62.1,29.98,SSE,160,0.0,4.0,61,0.00,,---,0.00,VWS V14.01,2013-06-04 22:28:00,
2013-06-04 18:30:00,76.3,61.9,29.98,SSE,160,0.0,4.0,61,0.00,,---,0.00,VWS V14.01,2013-06-04 22:30:00,
2013-06-04 18:32:00,76.3,61.9,29.98,SSE,160,0.0,1.0,61,0.00,,---,0.00,VWS V14.01,2013-06-04 22:32:00,
2013-06-04 18:34:00,76.3,61.9,29.98,SSE,161,0.0,1.0,61,0.00,,---,0.00,VWS V14.01,2013-06-04 22:34:00,
2013-06-04 18:36:00,76.3,61.9,29.98,SSE,161,0.0,1.0,61,0.00,,---,0.00,VWS V14.01,2013-06-04 22:36:00,
2013-06-04 18:38:00,76.3,61.9,29.98,SSE,152,0.0,3.0,61,0.00,,---,0.00,VWS V14.01,2013-06-04 22:38:00,
2013-06-04 18:40:00,76.1,62.6,29.98,SSE,152,0.0,3.0,63,0.00,,---,0.00,VWS V14.01,2013-06-04 22:40:00,
2013-06-04 18:42:00,76.1,62.2,29.98,SSE,152,0.0,3.0,62,0.00,,---,0.00,VWS V14.01,2013-06-04 22:42:00,
2013-06-04 18:44:00,76.0,62.0,29.98,SSE,152,0.0,3.0,62,0.00,,---,0.00,VWS V14.01,2013-06-04 22:44:00,
2013-06-04 18:45:00,76.0,62.0,29.98,SSE,152,0.0,3.0,62,0.00,,---,0.00,VWS V14.01,2013-06-04 22:45:00,
2013-06-04 18:46:00,76.0,62.5,29.98,SSE,152,0.0,0.0,63,0.00,,---,0.00,VWS V14.01,2013-06-04 22:46:00,
2013-06-04 18:48:00,76.0,62.5,29.98,SSE,152,0.0,0.0,63,0.00,,---,0.00,VWS V14.01,2013-06-04 22:48:00,
2013-06-04 18:50:00,76.0,62.5,29.98,SSE,152,0.0,1.0,63,0.00,,---,0.00,VWS V14.01,2013-06-04 22:50:00,
2013-06-04 18:53:00,76.0,62.5,29.98,SSE,152,0.0,1.0,63,0.00,,---,0.00,VWS V14.01,2013-06-04 22:53:00,
2013-06-04 18:55:00,75.8,62.8,29.98,SSE,152,0.0,1.0,64,0.00,,---,0.00,VWS V14.01,2013-06-04 22:55:00,
2013-06-04 18:57:00,75.8,62.8,29.98,SSE,152,0.0,1.0,64,0.00,,---,0.00,VWS V14.01,2013-06-04 22:57:00,
2013-06-04 18:59:00,75.8,62.3,29.98,SSE,152,0.0,1.0,63,0.00,,---,0.00,VWS V14.01,2013-06-04 22:59:00,
2013-06-04 19:00:00,75.8,62.3,29.98,SSE,152,0.0,1.0,63,0.00,,---,0.00,VWS V14.01,2013-06-04 23:00:00,
2013-06-04 19:01:00,75.8,62.3,29.98,SSE,152,0.0,0.0,63,0.00,,---,0.00,VWS V14.01,2013-06-04 23:01:00,
2013-06-04 19:03:00,75.8,62.3,29.98,SSE,152,0.0,0.0,63,0.00,,---,0.00,VWS V14.01,2013-06-04 23:03:00,
2013-06-04 19:05:00,75.8,62.8,29.98,SSE,152,0.0,1.0,64,0.00,,---,0.00,VWS V14.01,2013-06-04 23:05:00,
2013-06-04 19:07:00,75.8,62.8,29.98,SSE,152,0.0,1.0,64,0.00,,---,0.00,VWS V14.01,2013-06-04 23:07:00,
2013-06-04 19:09:00,75.4,62.4,29.98,SSE,152,0.0,1.0,64,0.00,,---,0.00,VWS V14.01,2013-06-04 23:09:00,
2013-06-04 19:11:00,75.4,62.8,29.98,SSE,152,0.0,1.0,65,0.00,,---,0.00,VWS V14.01,2013-06-04 23:11:00,
2013-06-04 19:13:00,75.3,62.3,29.98,SSE,152,0.0,1.0,64,0.00,,---,0.00,VWS V14.01,2013-06-04 23:13:00,
2013-06-04 19:15:00,75.3,62.7,29.98,SSE,152,0.0,1.0,65,0.00,,---,0.00,VWS V14.01,2013-06-04 23:15:00,
2013-06-04 19:17:00,75.3,63.2,29.98,SSE,152,0.0,0.0,66,0.00,,---,0.00,VWS V14.01,2013-06-04 23:17:00,
2013-06-04 19:19:00,75.1,62.5,29.98,SSE,152,0.0,0.0,65,0.00,,---,0.00,VWS V14.01,2013-06-04 23:19:00,
2013-06-04 19:21:00,75.1,63.0,29.98,SSE,152,0.0,0.0,66,0.00,,---,0.00,VWS V14.01,2013-06-04 23:21:00,
2013-06-04 19:23:00,75.1,62.5,29.98,SSE,152,0.0,0.0,65,0.00,,---,0.00,VWS V14.01,2013-06-04 23:23:00,
2013-06-04 19:25:00,75.1,62.5,29.98,SSE,152,0.0,0.0,65,0.00,,---,0.00,VWS V14.01,2013-06-04 23:25:00,
2013-06-04 19:27:00,75.1,62.5,29.98,SSE,152,0.0,0.0,65,0.00,,---,0.00,VWS V14.01,2013-06-04 23:27:00,
2013-06-04 19:29:00,75.1,62.5,29.98,SSE,152,0.0,0.0,65,0.00,,---,0.00,VWS V14.01,2013-06-04 23:29:00,
2013-06-04 19:30:00,75.1,62.5,29.98,SSE,152,0.0,0.0,65,0.00,,---,0.00,VWS V14.01,2013-06-04 23:30:00,
2013-06-04 19:31:00,75.1,62.5,29.98,SSE,152,0.0,0.0,65,0.00,,---,0.00,VWS V14.01,2013-06-04 23:31:00,
2013-06-04 19:33:00,74.9,62.3,29.98,SSE,152,0.0,0.0,65,0.00,,---,0.00,VWS V14.01,2013-06-04 23:33:00,
2013-06-04 19:35:00,74.9,62.8,29.98,SSE,152,0.0,0.0,66,0.00,,---,0.00,VWS V14.01,2013-06-04 23:35:00,
2013-06-04 19:37:00,74.9,62.8,29.98,SSE,152,0.0,0.0,66,0.00,,---,0.00,VWS V14.01,2013-06-04 23:37:00,
2013-06-04 19:39:00,74.9,62.8,29.98,SSE,152,0.0,0.0,66,0.00,,---,0.00,VWS V14.01,2013-06-04 23:39:00,
2013-06-04 19:41:00,74.9,62.8,29.98,SSE,152,0.0,1.0,66,0.00,,---,0.00,VWS V14.01,2013-06-04 23:41:00,
2013-06-04 19:43:00,74.7,62.6,29.98,SSE,152,0.0,1.0,66,0.00,,---,0.00,VWS V14.01,2013-06-04 23:43:00,
2013-06-04 19:45:00,74.7,62.6,29.99,SSE,152,0.0,1.0,66,0.00,,---,0.00,VWS V14.01,2013-06-04 23:45:00,
2013-06-04 19:47:00,74.7,62.6,29.99,SSE,152,0.0,0.0,66,0.00,,---,0.00,VWS V14.01,2013-06-04 23:47:00,
2013-06-04 19:49:00,74.6,62.5,29.99,SSE,152,0.0,0.0,66,0.00,,---,0.00,VWS V14.01,2013-06-04 23:49:00,
2013-06-04 19:51:00,74.6,62.5,29.99,SSE,152,0.0,0.0,66,0.00,,---,0.00,VWS V14.01,2013-06-04 23:51:00,
2013-06-04 19:53:00,74.6,62.5,29.99,SSE,152,0.0,0.0,66,0.00,,---,0.00,VWS V14.01,2013-06-04 23:53:00,
2013-06-04 19:55:00,74.4,62.7,29.99,SSE,152,0.0,0.0,67,0.00,,---,0.00,VWS V14.01,2013-06-04 23:55:00,
2013-06-04 19:57:00,74.4,62.7,29.99,SSE,152,0.0,0.0,67,0.00,,---,0.00,VWS V14.01,2013-06-04 23:57:00,
2013-06-04 19:59:00,74.4,63.2,30.00,SSE,152,0.0,0.0,68,0.00,,---,0.00,VWS V14.01,2013-06-04 23:59:00,
2013-06-04 20:00:00,74.2,63.0,30.00,SSE,152,0.0,0.0,68,0.00,,---,0.00,VWS V14.01,2013-06-05 00:00:00,
2013-06-04 20:01:00,74.2,63.0,30.00,SSE,152,0.0,0.0,68,0.00,,---,0.00,VWS V14.01,2013-06-05 00:01:00,
2013-06-04 20:03:00,74.2,63.0,30.00,SSE,152,0.0,0.0,68,0.00,,---,0.00,VWS V14.01,2013-06-05 00:03:00,
2013-06-04 20:05:00,74.0,62.8,30.00,SSE,152,0.0,0.0,68,0.00,,---,0.00,VWS V14.01,2013-06-05 00:05:00,
2013-06-04 20:07:00,74.0,62.8,30.00,SSE,152,0.0,0.0,68,0.00,,---,0.00,VWS V14.01,2013-06-05 00:07:00,
2013-06-04 20:09:00,73.9,62.7,30.00,SSE,152,0.0,0.0,68,0.00,,---,0.00,VWS V14.01,2013-06-05 00:09:00,
2013-06-04 20:11:00,73.7,62.5,30.00,SSE,152,0.0,0.0,68,0.00,,---,0.00,VWS V14.01,2013-06-05 00:11:00,
2013-06-04 20:13:00,73.7,62.9,30.00,SSE,152,0.0,0.0,69,0.00,,---,0.00,VWS V14.01,2013-06-05 00:13:00,
2013-06-04 20:15:00,73.7,62.9,30.00,SSE,152,0.0,0.0,69,0.00,,---,0.00,VWS V14.01,2013-06-05 00:15:00,
2013-06-04 20:17:00,73.5,62.7,30.00,SSE,152,0.0,0.0,69,0.00,,---,0.00,VWS V14.01,2013-06-05 00:17:00,
2013-06-04 20:19:00,73.3,62.9,30.00,SSE,152,0.0,0.0,70,0.00,,---,0.00,VWS V14.01,2013-06-05 00:19:00,
2013-06-04 20:21:00,73.2,62.8,30.00,SSE,152,0.0,0.0,70,0.00,,---,0.00,VWS V14.01,2013-06-05 00:21:00,
2013-06-04 20:23:00,73.0,62.7,30.00,SSE,152,0.0,0.0,70,0.00,,---,0.00,VWS V14.01,2013-06-05 00:23:00,
2013-06-04 20:25:00,73.0,63.0,30.00,SSE,152,0.0,0.0,71,0.00,,---,0.00,VWS V14.01,2013-06-05 00:25:00,
2013-06-04 20:27:00,72.8,62.9,30.00,SSE,152,0.0,0.0,71,0.00,,---,0.00,VWS V14.01,2013-06-05 00:27:00,
2013-06-04 20:29:00,72.7,63.2,30.01,SSE,152,0.0,0.0,72,0.00,,---,0.00,VWS V14.01,2013-06-05 00:29:00,
2013-06-04 20:30:00,72.7,63.2,30.01,SSE,152,0.0,0.0,72,0.00,,---,0.00,VWS V14.01,2013-06-05 00:30:00,
2013-06-04 20:31:00,72.5,63.4,30.01,SSE,152,0.0,0.0,73,0.00,,---,0.00,VWS V14.01,2013-06-05 00:31:00,
2013-06-04 20:33:00,72.3,63.6,30.01,SSE,152,0.0,0.0,74,0.00,,---,0.00,VWS V14.01,2013-06-05 00:33:00,
2013-06-04 20:35:00,72.0,63.3,30.01,SSE,152,0.0,0.0,74,0.00,,---,0.00,VWS V14.01,2013-06-05 00:35:00,
2013-06-04 20:37:00,71.8,63.1,30.01,SSE,152,0.0,0.0,74,0.00,,---,0.00,VWS V14.01,2013-06-05 00:37:00,
2013-06-04 20:39:00,71.8,63.1,30.01,SSE,152,0.0,0.0,74,0.00,,---,0.00,VWS V14.01,2013-06-05 00:39:00,
2013-06-04 20:41:00,71.6,63.3,30.01,SSE,152,0.0,0.0,75,0.00,,---,0.00,VWS V14.01,2013-06-05 00:41:00,
2013-06-04 20:43:00,71.5,63.2,30.01,SSE,152,0.0,0.0,75,0.00,,---,0.00,VWS V14.01,2013-06-05 00:43:00,
2013-06-04 20:45:00,71.5,63.2,30.01,SSE,152,0.0,0.0,75,0.00,,---,0.00,VWS V14.01,2013-06-05 00:45:00,
2013-06-04 20:47:00,71.3,63.0,30.01,SSE,152,0.0,0.0,75,0.00,,---,0.00,VWS V14.01,2013-06-05 00:47:00,
2013-06-04 20:49:00,71.3,63.0,30.01,SSE,152,0.0,0.0,75,0.00,,---,0.00,VWS V14.01,2013-06-05 00:49:00,
2013-06-04 20:52:00,71.1,63.2,30.01,SSE,152,0.0,0.0,76,0.00,,---,0.00,VWS V14.01,2013-06-05 00:52:00,
2013-06-04 20:54:00,70.9,63.0,30.01,SSE,152,0.0,0.0,76,0.00,,---,0.00,VWS V14.01,2013-06-05 00:54:00,
2013-06-04 20:56:00,70.9,63.3,30.01,SSE,152,0.0,0.0,77,0.00,,---,0.00,VWS V14.01,2013-06-05 00:56:00,
2013-06-04 20:58:00,70.8,63.2,30.01,SSE,152,0.0,0.0,77,0.00,,---,0.00,VWS V14.01,2013-06-05 00:58:00,
2013-06-04 20:59:00,70.6,63.4,30.01,SSE,152,0.0,0.0,78,0.00,,---,0.00,VWS V14.01,2013-06-05 00:59:00,
2013-06-04 21:00:00,70.6,63.4,30.01,SSE,152,0.0,0.0,78,0.00,,---,0.00,VWS V14.01,2013-06-05 01:00:00,
2013-06-04 21:02:00,70.6,63.4,30.01,SSE,152,0.0,0.0,78,0.00,,---,0.00,VWS V14.01,2013-06-05 01:02:00,
2013-06-04 21:04:00,70.4,63.6,30.01,SSE,152,0.0,0.0,79,0.00,,---,0.00,VWS V14.01,2013-06-05 01:04:00,
2013-06-04 21:06:00,70.4,63.6,30.01,SSE,152,0.0,0.0,79,0.00,,---,0.00,VWS V14.01,2013-06-05 01:06:00,
2013-06-04 21:08:00,70.3,63.5,30.01,SSE,152,0.0,0.0,79,0.00,,---,0.00,VWS V14.01,2013-06-05 01:08:00,
2013-06-04 21:10:00,70.3,63.8,30.01,SSE,152,0.0,0.0,80,0.00,,---,0.00,VWS V14.01,2013-06-05 01:10:00,
2013-06-04 21:12:00,70.1,63.7,30.01,SSE,152,0.0,0.0,80,0.00,,---,0.00,VWS V14.01,2013-06-05 01:12:00,
2013-06-04 21:14:00,69.9,63.8,30.01,SSE,152,0.0,0.0,81,0.00,,---,0.00,VWS V14.01,2013-06-05 01:14:00,
2013-06-04 21:15:00,69.9,63.8,30.01,SSE,152,0.0,0.0,81,0.00,,---,0.00,VWS V14.01,2013-06-05 01:15:00,
2013-06-04 21:16:00,69.8,63.7,30.01,SSE,152,0.0,0.0,81,0.00,,---,0.00,VWS V14.01,2013-06-05 01:16:00,
2013-06-04 21:18:00,69.6,63.9,30.01,SSE,152,0.0,0.0,82,0.00,,---,0.00,VWS V14.01,2013-06-05 01:18:00,
2013-06-04 21:20:00,69.4,63.7,30.01,SSE,152,0.0,0.0,82,0.00,,---,0.00,VWS V14.01,2013-06-05 01:20:00,
2013-06-04 21:22:00,69.4,63.7,30.01,SSE,152,0.0,0.0,82,0.00,,---,0.00,VWS V14.01,2013-06-05 01:22:00,
2013-06-04 21:24:00,69.3,63.9,30.01,SSE,152,0.0,0.0,83,0.00,,---,0.00,VWS V14.01,2013-06-05 01:24:00,
2013-06-04 21:26:00,69.1,64.1,30.01,SSE,152,0.0,0.0,84,0.00,,---,0.00,VWS V14.01,2013-06-05 01:26:00,
2013-06-04 21:28:00,68.9,63.9,30.01,SSE,152,0.0,0.0,84,0.00,,---,0.00,VWS V14.01,2013-06-05 01:28:00,
2013-06-04 21:30:00,68.8,63.8,30.02,SSE,152,0.0,0.0,84,0.00,,---,0.00,VWS V14.01,2013-06-05 01:30:00,
2013-06-04 21:32:00,68.8,64.1,30.02,SSE,152,0.0,0.0,85,0.00,,---,0.00,VWS V14.01,2013-06-05 01:32:00,
2013-06-04 21:34:00,68.6,63.9,30.02,SSE,152,0.0,0.0,85,0.00,,---,0.00,VWS V14.01,2013-06-05 01:34:00,
2013-06-04 21:36:00,68.6,63.9,30.02,SSE,152,0.0,0.0,85,0.00,,---,0.00,VWS V14.01,2013-06-05 01:36:00,
2013-06-04 21:38:00,68.4,63.7,30.02,SSE,152,0.0,0.0,85,0.00,,---,0.00,VWS V14.01,2013-06-05 01:38:00,
2013-06-04 21:40:00,68.4,64.1,30.02,SSE,152,0.0,0.0,86,0.00,,---,0.00,VWS V14.01,2013-06-05 01:40:00,
2013-06-04 21:42:00,68.3,64.0,30.02,SSE,152,0.0,0.0,86,0.00,,---,0.00,VWS V14.01,2013-06-05 01:42:00,
2013-06-04 21:44:00,68.1,63.8,30.03,SSE,152,0.0,0.0,86,0.00,,---,0.00,VWS V14.01,2013-06-05 01:44:00,
2013-06-04 21:45:00,68.1,64.1,30.03,SSE,152,0.0,0.0,87,0.00,,---,0.00,VWS V14.01,2013-06-05 01:45:00,
2013-06-04 21:46:00,67.9,63.9,30.03,SSE,152,0.0,0.0,87,0.00,,---,0.00,VWS V14.01,2013-06-05 01:46:00,
2013-06-04 21:48:00,67.8,63.8,30.03,SSE,152,0.0,0.0,87,0.00,,---,0.00,VWS V14.01,2013-06-05 01:48:00,
2013-06-04 21:50:00,67.6,63.9,30.03,SSE,152,0.0,0.0,88,0.00,,---,0.00,VWS V14.01,2013-06-05 01:50:00,
2013-06-04 21:52:00,67.6,63.9,30.03,SSE,152,0.0,0.0,88,0.00,,---,0.00,VWS V14.01,2013-06-05 01:52:00,
2013-06-04 21:54:00,67.4,63.7,30.03,SSE,152,0.0,0.0,88,0.00,,---,0.00,VWS V14.01,2013-06-05 01:54:00,
2013-06-04 21:56:00,67.3,64.0,30.03,SSE,152,0.0,0.0,89,0.00,,---,0.00,VWS V14.01,2013-06-05 01:56:00,
2013-06-04 21:58:00,67.3,64.0,30.03,SSE,152,0.0,0.0,89,0.00,,---,0.00,VWS V14.01,2013-06-05 01:58:00,
2013-06-04 22:00:00,67.3,64.3,30.03,SSE,152,0.0,0.0,90,0.00,,---,0.00,VWS V14.01,2013-06-05 02:00:00,
2013-06-04 22:02:00,67.1,64.1,30.03,SSE,152,0.0,0.0,90,0.00,,---,0.00,VWS V14.01,2013-06-05 02:02:00,
2013-06-04 22:04:00,66.9,63.9,30.03,SSE,152,0.0,0.0,90,0.00,,---,0.00,VWS V14.01,2013-06-05 02:04:00,
2013-06-04 22:06:00,66.9,63.9,30.03,SSE,152,0.0,0.0,90,0.00,,---,0.00,VWS V14.01,2013-06-05 02:06:00,
2013-06-04 22:08:00,66.9,63.9,30.03,SSE,152,0.0,0.0,90,0.00,,---,0.00,VWS V14.01,2013-06-05 02:08:00,
2013-06-04 22:10:00,66.8,63.8,30.03,SSE,152,0.0,0.0,90,0.00,,---,0.00,VWS V14.01,2013-06-05 02:10:00,
2013-06-04 22:12:00,66.8,63.8,30.03,SSE,152,0.0,0.0,90,0.00,,---,0.00,VWS V14.01,2013-06-05 02:12:00,
2013-06-04 22:14:00,66.8,63.8,30.03,SSE,152,0.0,0.0,90,0.00,,---,0.00,VWS V14.01,2013-06-05 02:14:00,
2013-06-04 22:15:00,66.8,63.8,30.03,SSE,152,0.0,0.0,90,0.00,,---,0.00,VWS V14.01,2013-06-05 02:15:00,
2013-06-04 22:16:00,66.8,63.8,30.03,SSE,152,0.0,0.0,90,0.00,,---,0.00,VWS V14.01,2013-06-05 02:16:00,
2013-06-04 22:18:00,66.6,63.9,30.03,SSE,152,0.0,0.0,91,0.00,,---,0.00,VWS V14.01,2013-06-05 02:18:00,
2013-06-04 22:20:00,66.4,63.7,30.03,SSE,152,0.0,0.0,91,0.00,,---,0.00,VWS V14.01,2013-06-05 02:20:00,
2013-06-04 22:22:00,66.4,63.7,30.03,SSE,152,0.0,0.0,91,0.00,,---,0.00,VWS V14.01,2013-06-05 02:22:00,
2013-06-04 22:24:00,66.3,63.6,30.03,SSE,152,0.0,0.0,91,0.00,,---,0.00,VWS V14.01,2013-06-05 02:24:00,
2013-06-04 22:26:00,66.1,63.7,30.03,SSE,152,0.0,0.0,92,0.00,,---,0.00,VWS V14.01,2013-06-05 02:26:00,
2013-06-04 22:28:00,66.1,63.7,30.03,SSE,152,0.0,0.0,92,0.00,,---,0.00,VWS V14.01,2013-06-05 02:28:00,
2013-06-04 22:30:00,66.0,63.6,30.03,SSE,152,0.0,0.0,92,0.00,,---,0.00,VWS V14.01,2013-06-05 02:30:00,
2013-06-04 22:32:00,66.0,63.6,30.03,SSE,152,0.0,0.0,92,0.00,,---,0.00,VWS V14.01,2013-06-05 02:32:00,
2013-06-04 22:34:00,66.0,63.6,30.03,SSE,152,0.0,0.0,92,0.00,,---,0.00,VWS V14.01,2013-06-05 02:34:00,
2013-06-04 22:36:00,65.8,63.4,30.03,SSE,152,0.0,0.0,92,0.00,,---,0.00,VWS V14.01,2013-06-05 02:36:00,
2013-06-04 22:38:00,65.8,63.4,30.03,SSE,152,0.0,0.0,92,0.00,,---,0.00,VWS V14.01,2013-06-05 02:38:00,
2013-06-04 22:40:00,65.8,63.7,30.03,SSE,152,0.0,0.0,93,0.00,,---,0.00,VWS V14.01,2013-06-05 02:40:00,
2013-06-04 22:42:00,65.6,63.5,30.03,SSE,152,0.0,0.0,93,0.00,,---,0.00,VWS V14.01,2013-06-05 02:42:00,
2013-06-04 22:44:00,65.6,63.5,30.03,SSE,152,0.0,0.0,93,0.00,,---,0.00,VWS V14.01,2013-06-05 02:44:00,
2013-06-04 22:45:00,65.6,63.5,30.03,SSE,152,0.0,0.0,93,0.00,,---,0.00,VWS V14.01,2013-06-05 02:45:00,
2013-06-04 22:46:00,65.6,63.5,30.03,SSE,152,0.0,0.0,93,0.00,,---,0.00,VWS V14.01,2013-06-05 02:46:00,
2013-06-04 22:48:00,65.6,63.5,30.03,SSE,152,0.0,0.0,93,0.00,,---,0.00,VWS V14.01,2013-06-05 02:48:00,
2013-06-04 22:50:00,65.5,63.4,30.03,SSE,152,0.0,0.0,93,0.00,,---,0.00,VWS V14.01,2013-06-05 02:50:00,
2013-06-04 22:52:00,65.5,63.4,30.03,SSE,152,0.0,0.0,93,0.00,,---,0.00,VWS V14.01,2013-06-05 02:52:00,
2013-06-04 22:54:00,65.5,63.4,30.03,SSE,152,0.0,0.0,93,0.00,,---,0.00,VWS V14.01,2013-06-05 02:54:00,
2013-06-04 22:56:00,65.5,63.4,30.03,SSE,152,0.0,0.0,93,0.00,,---,0.00,VWS V14.01,2013-06-05 02:56:00,
2013-06-04 22:58:00,65.3,63.2,30.03,SSE,152,0.0,0.0,93,0.00,,---,0.00,VWS V14.01,2013-06-05 02:58:00,
2013-06-04 23:00:00,65.3,63.5,30.04,SSE,152,0.0,0.0,94,0.00,,---,0.00,VWS V14.01,2013-06-05 03:00:00,
2013-06-04 23:02:00,65.3,63.5,30.04,SSE,152,0.0,0.0,94,0.00,,---,0.00,VWS V14.01,2013-06-05 03:02:00,
2013-06-04 23:04:00,65.3,63.5,30.04,SSE,152,0.0,0.0,94,0.00,,---,0.00,VWS V14.01,2013-06-05 03:04:00,
2013-06-04 23:06:00,65.2,63.4,30.04,SSE,152,0.0,0.0,94,0.00,,---,0.00,VWS V14.01,2013-06-05 03:06:00,
2013-06-04 23:08:00,65.2,63.7,30.04,SSE,152,0.0,0.0,95,0.00,,---,0.00,VWS V14.01,2013-06-05 03:08:00,
2013-06-04 23:10:00,65.2,63.7,30.04,SSE,152,0.0,0.0,95,0.00,,---,0.00,VWS V14.01,2013-06-05 03:10:00,
2013-06-04 23:12:00,65.2,63.7,30.04,SSE,152,0.0,0.0,95,0.00,,---,0.00,VWS V14.01,2013-06-05 03:12:00,
2013-06-04 23:14:00,65.2,63.7,30.04,SSE,152,0.0,0.0,95,0.00,,---,0.00,VWS V14.01,2013-06-05 03:14:00,
2013-06-04 23:15:00,65.2,63.7,30.04,SSE,152,0.0,0.0,95,0.00,,---,0.00,VWS V14.01,2013-06-05 03:15:00,
2013-06-04 23:16:00,65.2,63.7,30.04,SSE,152,0.0,0.0,95,0.00,,---,0.00,VWS V14.01,2013-06-05 03:16:00,
2013-06-04 23:18:00,65.0,63.5,30.04,SSE,152,0.0,0.0,95,0.00,,---,0.00,VWS V14.01,2013-06-05 03:18:00,
2013-06-04 23:20:00,65.0,63.5,30.04,SSE,152,0.0,0.0,95,0.00,,---,0.00,VWS V14.01,2013-06-05 03:20:00,
2013-06-04 23:22:00,65.0,63.5,30.04,SSE,152,0.0,0.0,95,0.00,,---,0.00,VWS V14.01,2013-06-05 03:22:00,
2013-06-04 23:24:00,65.0,63.5,30.04,SSE,152,0.0,0.0,95,0.00,,---,0.00,VWS V14.01,2013-06-05 03:24:00,
2013-06-04 23:26:00,64.8,63.3,30.04,SSE,152,0.0,0.0,95,0.00,,---,0.00,VWS V14.01,2013-06-05 03:26:00,
2013-06-04 23:28:00,64.8,63.3,30.04,SSE,152,0.0,0.0,95,0.00,,---,0.00,VWS V14.01,2013-06-05 03:28:00,
2013-06-04 23:30:00,64.8,63.3,30.04,SSE,152,0.0,0.0,95,0.00,,---,0.00,VWS V14.01,2013-06-05 03:30:00,
2013-06-04 23:33:00,64.8,63.3,30.04,SSE,152,0.0,0.0,95,0.00,,---,0.00,VWS V14.01,2013-06-05 03:33:00,
2013-06-04 23:35:00,64.8,63.3,30.04,SSE,152,0.0,0.0,95,0.00,,---,0.00,VWS V14.01,2013-06-05 03:35:00,
2013-06-04 23:37:00,64.7,63.2,30.04,SSE,152,0.0,0.0,95,0.00,,---,0.00,VWS V14.01,2013-06-05 03:37:00,
2013-06-04 23:39:00,64.7,63.2,30.04,SSE,152,0.0,0.0,95,0.00,,---,0.00,VWS V14.01,2013-06-05 03:39:00,
2013-06-04 23:41:00,64.7,63.2,30.04,SSE,152,0.0,0.0,95,0.00,,---,0.00,VWS V14.01,2013-06-05 03:41:00,
2013-06-04 23:43:00,64.7,63.2,30.04,SSE,152,0.0,0.0,95,0.00,,---,0.00,VWS V14.01,2013-06-05 03:43:00,
2013-06-04 23:45:00,64.5,63.0,30.04,SSE,152,0.0,0.0,95,0.00,,---,0.00,VWS V14.01,2013-06-05 03:45:00,
2013-06-04 23:47:00,64.5,63.0,30.04,SSE,152,0.0,0.0,95,0.00,,---,0.00,VWS V14.01,2013-06-05 03:47:00,
2013-06-04 23:49:00,64.3,62.8,30.04,SSE,152,0.0,0.0,95,0.00,,---,0.00,VWS V14.01,2013-06-05 03:49:00,
2013-06-04 23:51:00,64.3,62.8,30.04,SSE,152,0.0,0.0,95,0.00,,---,0.00,VWS V14.01,2013-06-05 03:51:00,
2013-06-04 23:53:00,64.3,62.8,30.04,SSE,152,0.0,0.0,95,0.00,,---,0.00,VWS V14.01,2013-06-05 03:53:00,
2013-06-04 23:55:00,64.2,62.7,30.04,SSE,152,0.0,0.0,95,0.00,,---,0.00,VWS V14.01,2013-06-05 03:55:00,
2013-06-04 23:57:00,64.2,63.0,30.04,SSE,152,0.0,0.0,96,0.00,,---,0.00,VWS V14.01,2013-06-05 03:57:00,
2013-06-04 23:59:00,64.2,63.0,30.04,SSE,152,0.0,0.0,96,0.00,,---,0.00,VWS V14.01,2013-06-05 03:59:00,